| time (UTC) | temp F | wind direction | speed MPH | gust MPH | rain 1hr in | rain 24hr in | rain mn in | humidity % | barometer mb |
| 20260505151603 | 58 | 301 | 1.0 | 3.0 | 0.00 | 0.31 | 0.31 | 90 | 1013.8 |
| 20260505151503 | 58 | 301 | 1.0 | 3.0 | 0.00 | 0.31 | 0.31 | 90 | 1013.8 |
| 20260505151403 | 58 | 301 | 1.0 | 3.0 | 0.00 | 0.31 | 0.31 | 90 | 1013.8 |
| 20260505151303 | 58 | 301 | 1.0 | 3.0 | 0.00 | 0.31 | 0.31 | 90 | 1013.8 |
| 20260505151203 | 58 | 301 | 1.0 | 3.0 | 0.00 | 0.31 | 0.31 | 90 | 1013.8 |
| 20260505151103 | 58 | 299 | 0.0 | 3.0 | 0.00 | 0.31 | 0.31 | 90 | 1013.7 |
| 20260505151004 | 58 | 295 | 0.0 | 2.0 | 0.00 | 0.31 | 0.31 | 90 | 1013.7 |
| 20260505150903 | 58 | 294 | 0.0 | 2.0 | 0.00 | 0.31 | 0.31 | 90 | 1013.8 |
| 20260505150803 | 58 | 294 | 0.0 | 2.0 | 0.00 | 0.31 | 0.31 | 90 | 1013.7 |
| 20260505150703 | 58 | 294 | 0.0 | 2.0 | 0.00 | 0.31 | 0.31 | 90 | 1013.7 |
| 20260505150603 | 58 | 295 | 0.0 | 1.0 | 0.00 | 0.31 | 0.31 | 91 | 1013.7 |
| 20260505150503 | 58 | 294 | 0.0 | 1.0 | 0.00 | 0.31 | 0.31 | 91 | 1013.7 |
| 20260505150403 | 58 | 294 | 0.0 | 1.0 | 0.00 | 0.31 | 0.31 | 91 | 1013.8 |
| 20260505150303 | 58 | 294 | 0.0 | 1.0 | 0.00 | 0.31 | 0.31 | 91 | 1013.8 |
| 20260505150203 | 58 | 294 | 0.0 | 4.0 | 0.00 | 0.31 | 0.31 | 91 | 1013.8 |
| 20260505140603 | 59 | 304 | 1.0 | 5.0 | 0.00 | 0.31 | 0.31 | 88 | 1013.9 |
| 20260505140503 | 59 | 305 | 2.0 | 5.0 | 0.00 | 0.31 | 0.31 | 87 | 1013.9 |
| 20260505140403 | 59 | 305 | 1.0 | 5.0 | 0.00 | 0.31 | 0.31 | 87 | 1013.9 |
| 20260505140303 | 59 | 305 | 1.0 | 5.0 | 0.00 | 0.31 | 0.31 | 87 | 1013.9 |
| 20260505140203 | 59 | 305 | 1.0 | 5.0 | 0.00 | 0.31 | 0.31 | 87 | 1013.9 |
| 20260505130303 | 60 | 305 | 1.0 | 4.0 | 0.00 | 0.31 | 0.31 | 86 | 1014.2 |
| 20260505130203 | 60 | 305 | 1.0 | 4.0 | 0.00 | 0.31 | 0.31 | 86 | 1014.2 |
| 20260505130103 | 60 | 302 | 1.0 | 4.0 | 0.00 | 0.31 | 0.31 | 86 | 1014.2 |
| 20260505125003 | 60 | 295 | 0.0 | 3.0 | 0.00 | 0.31 | 0.31 | 86 | 1014.2 |
| 20260505124903 | 60 | 294 | 0.0 | 3.0 | 0.00 | 0.31 | 0.31 | 86 | 1014.2 |
| 20260505124803 | 60 | 293 | 0.0 | 3.0 | 0.00 | 0.31 | 0.31 | 86 | 1014.2 |
| 20260505124703 | 60 | 293 | 0.0 | 3.0 | 0.00 | 0.31 | 0.31 | 86 | 1014.2 |
| 20260505124603 | 60 | 293 | 0.0 | 3.0 | 0.00 | 0.31 | 0.31 | 86 | 1014.3 |
| 20260505124503 | 60 | 292 | 0.0 | 3.0 | 0.00 | 0.31 | 0.31 | 87 | 1014.3 |
| 20260505124403 | 60 | 291 | 0.0 | 3.0 | 0.00 | 0.31 | 0.31 | 87 | 1014.3 |
| 20260505124303 | 60 | 289 | 0.0 | 4.0 | 0.00 | 0.31 | 0.31 | 87 | 1014.3 |
| 20260505124203 | 60 | 289 | 0.0 | 4.0 | 0.00 | 0.31 | 0.31 | 87 | 1014.3 |
| 20260505124103 | 60 | 288 | 0.0 | 4.0 | 0.00 | 0.31 | 0.31 | 87 | 1014.3 |
| 20260505124003 | 60 | 287 | 1.0 | 5.0 | 0.00 | 0.31 | 0.31 | 86 | 1014.3 |
| 20260505123903 | 60 | 288 | 1.0 | 5.0 | 0.00 | 0.31 | 0.31 | 87 | 1014.4 |
| 20260505123803 | 60 | 287 | 1.0 | 5.0 | 0.00 | 0.31 | 0.31 | 87 | 1014.4 |
| 20260505123703 | 60 | 287 | 1.0 | 5.0 | 0.00 | 0.31 | 0.31 | 87 | 1014.4 |
| 20260505123604 | 59 | 287 | 1.0 | 5.0 | 0.00 | 0.31 | 0.31 | 87 | 1014.4 |
| 20260505123504 | 59 | 288 | 1.0 | 5.0 | 0.00 | 0.31 | 0.31 | 87 | 1014.4 |
| 20260505123404 | 59 | 289 | 1.0 | 5.0 | 0.00 | 0.31 | 0.31 | 87 | 1014.4 |
| 20260505123304 | 59 | 289 | 1.0 | 5.0 | 0.00 | 0.31 | 0.31 | 87 | 1014.4 |
| 20260505123204 | 59 | 289 | 1.0 | 5.0 | 0.00 | 0.31 | 0.31 | 87 | 1014.4 |
| 20260505123104 | 59 | 289 | 1.0 | 5.0 | 0.00 | 0.31 | 0.31 | 87 | 1014.4 |
| 20260505123004 | 59 | 292 | 0.0 | 4.0 | 0.00 | 0.31 | 0.31 | 87 | 1014.4 |
| 20260505122904 | 59 | 293 | 0.0 | 4.0 | 0.00 | 0.31 | 0.31 | 87 | 1014.4 |
| 20260505122804 | 59 | 293 | 0.0 | 4.0 | 0.00 | 0.31 | 0.31 | 87 | 1014.4 |
| 20260505122704 | 59 | 293 | 0.0 | 4.0 | 0.00 | 0.31 | 0.31 | 87 | 1014.4 |
| 20260505122604 | 59 | 295 | 1.0 | 5.0 | 0.00 | 0.31 | 0.31 | 87 | 1014.4 |
| 20260505122504 | 59 | 295 | 1.0 | 5.0 | 0.00 | 0.31 | 0.31 | 88 | 1014.4 |
| 20260505122404 | 59 | 296 | 1.0 | 5.0 | 0.00 | 0.31 | 0.31 | 88 | 1014.4 |
| 20260505122305 | 59 | 295 | 1.0 | 6.0 | 0.00 | 0.31 | 0.31 | 88 | 1014.4 |
| 20260505122204 | 59 | 294 | 1.0 | 6.0 | 0.00 | 0.31 | 0.31 | 88 | 1014.4 |
| 20260505122104 | 59 | 294 | 1.0 | 6.0 | 0.00 | 0.31 | 0.31 | 89 | 1014.5 |
| 20260505122004 | 58 | 293 | 1.0 | 6.0 | 0.00 | 0.31 | 0.31 | 89 | 1014.5 |
| 20260505121904 | 58 | 292 | 2.0 | 6.0 | 0.00 | 0.31 | 0.31 | 89 | 1014.4 |
| 20260505121804 | 58 | 292 | 2.0 | 6.0 | 0.00 | 0.31 | 0.31 | 88 | 1014.4 |
| 20260505121704 | 58 | 291 | 2.0 | 6.0 | 0.00 | 0.31 | 0.31 | 88 | 1014.4 |
| 20260505121604 | 58 | 290 | 2.0 | 6.0 | 0.00 | 0.31 | 0.31 | 88 | 1014.4 |
| 20260505121504 | 58 | 290 | 2.0 | 6.0 | 0.00 | 0.31 | 0.31 | 88 | 1014.4 |
| 20260505121404 | 58 | 290 | 2.0 | 6.0 | 0.00 | 0.31 | 0.31 | 88 | 1014.4 |
| 20260505121303 | 58 | 288 | 2.0 | 6.0 | 0.00 | 0.31 | 0.31 | 88 | 1014.4 |
| 20260505121203 | 58 | 288 | 1.0 | 5.0 | 0.00 | 0.31 | 0.31 | 88 | 1014.4 |
| 20260505121103 | 58 | 287 | 1.0 | 5.0 | 0.00 | 0.31 | 0.31 | 88 | 1014.3 |
| 20260505121004 | 58 | 287 | 1.0 | 5.0 | 0.00 | 0.31 | 0.31 | 88 | 1014.4 |
| 20260505120903 | 58 | 287 | 1.0 | 5.0 | 0.00 | 0.31 | 0.31 | 88 | 1014.4 |
| 20260505120803 | 58 | 286 | 1.0 | 5.0 | 0.00 | 0.31 | 0.31 | 89 | 1014.4 |
| 20260505120703 | 58 | 286 | 1.0 | 5.0 | 0.00 | 0.31 | 0.31 | 89 | 1014.4 |
| 20260505120603 | 58 | 286 | 1.0 | 5.0 | 0.00 | 0.31 | 0.31 | 89 | 1014.4 |
| 20260505120503 | 58 | 286 | 1.0 | 5.0 | 0.00 | 0.31 | 0.31 | 88 | 1014.5 |
| 20260505120404 | 58 | 288 | 1.0 | 5.0 | 0.00 | 0.31 | 0.31 | 89 | 1014.5 |
| 20260505120303 | 58 | 290 | 1.0 | 5.0 | 0.00 | 0.31 | 0.31 | 88 | 1014.4 |
| 20260505120204 | 58 | 290 | 1.0 | 5.0 | 0.00 | 0.31 | 0.31 | 89 | 1014.5 |
| 20260505120103 | 58 | 293 | 1.0 | 5.0 | 0.00 | 0.31 | 0.31 | 89 | 1014.5 |
| 20260505120004 | 58 | 294 | 1.0 | 5.0 | 0.00 | 0.31 | 0.31 | 89 | 1014.4 |
| 20260505115903 | 58 | 295 | 1.0 | 5.0 | 0.00 | 0.31 | 0.31 | 89 | 1014.4 |
| 20260505115803 | 58 | 295 | 1.0 | 5.0 | 0.00 | 0.31 | 0.31 | 89 | 1014.5 |
| 20260505115703 | 58 | 295 | 1.0 | 5.0 | 0.00 | 0.31 | 0.31 | 89 | 1014.4 |
| 20260505115603 | 58 | 297 | 1.0 | 5.0 | 0.00 | 0.31 | 0.31 | 89 | 1014.4 |
| 20260505115503 | 58 | 298 | 1.0 | 5.0 | 0.00 | 0.31 | 0.31 | 89 | 1014.5 |
| 20260505115403 | 58 | 297 | 1.0 | 5.0 | 0.00 | 0.31 | 0.31 | 89 | 1014.5 |
| 20260505115305 | 58 | 297 | 1.0 | 5.0 | 0.00 | 0.31 | 0.31 | 88 | 1014.5 |
| 20260505115203 | 58 | 297 | 1.0 | 5.0 | 0.00 | 0.31 | 0.31 | 88 | 1014.5 |
| 20260505115103 | 58 | 298 | 1.0 | 5.0 | 0.00 | 0.31 | 0.31 | 88 | 1014.5 |
| 20260505115003 | 58 | 298 | 1.0 | 5.0 | 0.00 | 0.31 | 0.31 | 88 | 1014.5 |
| 20260505114903 | 58 | 298 | 1.0 | 5.0 | 0.00 | 0.31 | 0.31 | 88 | 1014.5 |
| 20260505114803 | 58 | 299 | 1.0 | 5.0 | 0.00 | 0.31 | 0.31 | 88 | 1014.5 |
| 20260505114703 | 58 | 299 | 1.0 | 5.0 | 0.00 | 0.31 | 0.31 | 88 | 1014.5 |
| 20260505114603 | 58 | 299 | 0.0 | 5.0 | 0.00 | 0.31 | 0.31 | 88 | 1014.5 |
| 20260505114503 | 58 | 296 | 0.0 | 5.0 | 0.00 | 0.31 | 0.31 | 88 | 1014.5 |
| 20260505114403 | 58 | 299 | 0.0 | 5.0 | 0.00 | 0.31 | 0.31 | 88 | 1014.6 |
| 20260505114303 | 58 | 302 | 0.0 | 4.0 | 0.00 | 0.31 | 0.31 | 88 | 1014.6 |
| 20260505114203 | 58 | 297 | 0.0 | 4.0 | 0.00 | 0.31 | 0.31 | 88 | 1014.6 |
| 20260505114103 | 58 | 293 | 0.0 | 4.0 | 0.00 | 0.31 | 0.31 | 89 | 1014.6 |
| 20260505114003 | 58 | 291 | 0.0 | 4.0 | 0.00 | 0.31 | 0.31 | 89 | 1014.6 |
| 20260505113903 | 58 | 290 | 1.0 | 6.0 | 0.00 | 0.31 | 0.31 | 89 | 1014.6 |
| 20260505113803 | 58 | 290 | 1.0 | 6.0 | 0.00 | 0.31 | 0.31 | 89 | 1014.6 |
| 20260505113703 | 58 | 291 | 1.0 | 6.0 | 0.00 | 0.31 | 0.31 | 89 | 1014.5 |
| 20260505113603 | 58 | 291 | 1.0 | 6.0 | 0.00 | 0.31 | 0.31 | 89 | 1014.5 |
| 20260505113503 | 58 | 290 | 1.0 | 6.0 | 0.00 | 0.31 | 0.31 | 88 | 1014.6 |
| 20260505113404 | 58 | 291 | 1.0 | 6.0 | 0.00 | 0.31 | 0.31 | 88 | 1014.6 |
| 20260505113304 | 58 | 291 | 1.0 | 6.0 | 0.00 | 0.31 | 0.31 | 88 | 1014.6 |
| 20260505113204 | 58 | 291 | 1.0 | 6.0 | 0.00 | 0.31 | 0.31 | 88 | 1014.6 |
| 20260505113104 | 58 | 290 | 1.0 | 6.0 | 0.00 | 0.31 | 0.31 | 88 | 1014.6 |
| 20260505113004 | 58 | 290 | 1.0 | 6.0 | 0.00 | 0.31 | 0.31 | 87 | 1014.6 |
| 20260505112904 | 58 | 290 | 1.0 | 5.0 | 0.00 | 0.31 | 0.31 | 88 | 1014.6 |
| 20260505112804 | 58 | 291 | 1.0 | 5.0 | 0.00 | 0.31 | 0.31 | 88 | 1014.6 |
| 20260505112704 | 58 | 290 | 1.0 | 5.0 | 0.00 | 0.31 | 0.31 | 89 | 1014.5 |
| 20260505112604 | 58 | 290 | 1.0 | 5.0 | 0.00 | 0.31 | 0.31 | 89 | 1014.5 |
| 20260505112504 | 58 | 289 | 1.0 | 5.0 | 0.00 | 0.31 | 0.31 | 89 | 1014.5 |
| 20260505112404 | 58 | 288 | 1.0 | 5.0 | 0.00 | 0.31 | 0.31 | 88 | 1014.5 |
| 20260505112305 | 58 | 288 | 1.0 | 5.0 | 0.00 | 0.31 | 0.31 | 88 | 1014.5 |
| 20260505112204 | 58 | 287 | 1.0 | 5.0 | 0.00 | 0.31 | 0.31 | 88 | 1014.5 |
| 20260505112104 | 57 | 287 | 1.0 | 5.0 | 0.00 | 0.31 | 0.31 | 89 | 1014.5 |
| 20260505112004 | 57 | 288 | 1.0 | 5.0 | 0.00 | 0.31 | 0.31 | 89 | 1014.5 |
| 20260505111904 | 57 | 287 | 1.0 | 8.0 | 0.00 | 0.31 | 0.31 | 89 | 1014.6 |
| 20260505111804 | 57 | 288 | 1.0 | 8.0 | 0.00 | 0.31 | 0.31 | 89 | 1014.6 |
| 20260505111704 | 57 | 288 | 1.0 | 8.0 | 0.00 | 0.31 | 0.31 | 89 | 1014.6 |
| 20260505111604 | 57 | 289 | 1.0 | 8.0 | 0.00 | 0.31 | 0.31 | 90 | 1014.6 |
| 20260505111504 | 57 | 290 | 1.0 | 8.0 | 0.00 | 0.31 | 0.31 | 89 | 1014.6 |
| 20260505111404 | 57 | 291 | 1.0 | 8.0 | 0.00 | 0.31 | 0.31 | 90 | 1014.7 |
| 20260505111304 | 57 | 291 | 2.0 | 8.0 | 0.00 | 0.31 | 0.31 | 89 | 1014.7 |
| 20260505111204 | 57 | 290 | 2.0 | 8.0 | 0.00 | 0.31 | 0.31 | 89 | 1014.7 |
| 20260505111104 | 57 | 290 | 2.0 | 8.0 | 0.00 | 0.31 | 0.31 | 89 | 1014.7 |
| 20260505111004 | 57 | 290 | 2.0 | 8.0 | 0.00 | 0.31 | 0.31 | 89 | 1014.7 |
| 20260505110904 | 57 | 291 | 2.0 | 5.0 | 0.00 | 0.31 | 0.31 | 89 | 1014.7 |
| 20260505110803 | 57 | 290 | 1.0 | 5.0 | 0.00 | 0.31 | 0.31 | 90 | 1014.7 |
| 20260505110703 | 57 | 290 | 1.0 | 5.0 | 0.00 | 0.31 | 0.31 | 90 | 1014.7 |
| 20260505110603 | 57 | 289 | 1.0 | 6.0 | 0.00 | 0.31 | 0.31 | 90 | 1014.7 |
| 20260505110503 | 57 | 289 | 1.0 | 7.0 | 0.00 | 0.31 | 0.31 | 90 | 1014.7 |
| 20260505110403 | 57 | 288 | 2.0 | 7.0 | 0.00 | 0.31 | 0.31 | 90 | 1014.7 |
| 20260505110303 | 57 | 288 | 2.0 | 7.0 | 0.00 | 0.31 | 0.31 | 90 | 1014.7 |
| 20260505110203 | 57 | 288 | 2.0 | 7.0 | 0.00 | 0.31 | 0.31 | 90 | 1014.7 |
| 20260505102203 | 56 | 289 | 2.0 | 8.0 | 0.02 | 0.31 | 0.31 | 91 | 1014.7 |
| 20260505102103 | 56 | 290 | 2.0 | 8.0 | 0.02 | 0.31 | 0.31 | 91 | 1014.8 |
| 20260505102003 | 56 | 291 | 2.0 | 8.0 | 0.02 | 0.31 | 0.31 | 90 | 1014.8 |
| 20260505101903 | 56 | 292 | 2.0 | 8.0 | 0.02 | 0.31 | 0.31 | 91 | 1014.8 |
| 20260505101803 | 56 | 293 | 2.0 | 8.0 | 0.02 | 0.31 | 0.31 | 91 | 1014.8 |
| 20260505101703 | 56 | 293 | 2.0 | 8.0 | 0.02 | 0.31 | 0.31 | 91 | 1014.7 |
| 20260505101604 | 56 | 293 | 2.0 | 8.0 | 0.02 | 0.31 | 0.31 | 90 | 1014.7 |
| 20260505101504 | 55 | 294 | 2.0 | 8.0 | 0.02 | 0.31 | 0.31 | 90 | 1014.7 |
| 20260505101404 | 55 | 294 | 2.0 | 8.0 | 0.02 | 0.31 | 0.31 | 90 | 1014.7 |
| 20260505101304 | 56 | 294 | 1.0 | 7.0 | 0.02 | 0.31 | 0.31 | 91 | 1014.7 |
| 20260505101204 | 56 | 294 | 1.0 | 7.0 | 0.02 | 0.31 | 0.31 | 91 | 1014.7 |
| 20260505101104 | 56 | 295 | 1.0 | 7.0 | 0.02 | 0.31 | 0.31 | 91 | 1014.7 |
| 20260505101004 | 56 | 295 | 1.0 | 7.0 | 0.02 | 0.31 | 0.31 | 91 | 1014.7 |
| 20260505100904 | 56 | 294 | 1.0 | 6.0 | 0.02 | 0.31 | 0.31 | 92 | 1014.7 |
| 20260505100804 | 56 | 293 | 1.0 | 5.0 | 0.02 | 0.31 | 0.31 | 91 | 1014.7 |
| 20260505100704 | 56 | 293 | 1.0 | 5.0 | 0.02 | 0.31 | 0.31 | 91 | 1014.7 |
| 20260505100604 | 56 | 293 | 1.0 | 5.0 | 0.02 | 0.31 | 0.31 | 92 | 1014.7 |
| 20260505100504 | 56 | 292 | 1.0 | 5.0 | 0.02 | 0.31 | 0.31 | 92 | 1014.8 |
| 20260505100404 | 56 | 292 | 1.0 | 5.0 | 0.02 | 0.31 | 0.31 | 92 | 1014.8 |
| 20260505100304 | 56 | 291 | 1.0 | 5.0 | 0.02 | 0.31 | 0.31 | 92 | 1014.8 |
| 20260505100204 | 56 | 292 | 1.0 | 5.0 | 0.02 | 0.31 | 0.31 | 92 | 1014.8 |
| 20260505100104 | 56 | 292 | 1.0 | 5.0 | 0.02 | 0.31 | 0.31 | 92 | 1014.8 |
| 20260505100004 | 56 | 292 | 1.0 | 5.0 | 0.02 | 0.31 | 0.31 | 92 | 1014.7 |
| 20260505095903 | 56 | 291 | 1.0 | 4.0 | 0.02 | 0.31 | 0.31 | 92 | 1014.7 |
| 20260505095803 | 56 | 291 | 1.0 | 4.0 | 0.02 | 0.31 | 0.31 | 92 | 1014.7 |
| 20260505095703 | 56 | 292 | 1.0 | 4.0 | 0.02 | 0.31 | 0.31 | 92 | 1014.7 |
| 20260505095603 | 56 | 293 | 1.0 | 4.0 | 0.02 | 0.31 | 0.31 | 91 | 1014.7 |
| 20260505095503 | 56 | 293 | 1.0 | 6.0 | 0.02 | 0.31 | 0.31 | 92 | 1014.7 |
| 20260505095403 | 56 | 294 | 1.0 | 6.0 | 0.02 | 0.31 | 0.31 | 91 | 1014.7 |
| 20260505095305 | 56 | 295 | 1.0 | 6.0 | 0.02 | 0.31 | 0.31 | 91 | 1014.7 |
| 20260505095203 | 56 | 295 | 1.0 | 6.0 | 0.02 | 0.31 | 0.31 | 91 | 1014.7 |
| 20260505095103 | 56 | 295 | 1.0 | 6.0 | 0.02 | 0.31 | 0.31 | 91 | 1014.7 |
| 20260505095005 | 56 | 296 | 1.0 | 6.0 | 0.02 | 0.31 | 0.31 | 91 | 1014.8 |
| 20260505094904 | 56 | 297 | 1.0 | 6.0 | 0.02 | 0.31 | 0.31 | 91 | 1014.8 |
| 20260505094803 | 56 | 297 | 1.0 | 6.0 | 0.02 | 0.31 | 0.31 | 91 | 1014.8 |
| 20260505094703 | 56 | 297 | 1.0 | 6.0 | 0.02 | 0.31 | 0.31 | 91 | 1014.8 |
| 20260505094603 | 56 | 297 | 1.0 | 6.0 | 0.02 | 0.31 | 0.31 | 91 | 1014.8 |
| 20260505094503 | 56 | 298 | 0.0 | 5.0 | 0.02 | 0.31 | 0.31 | 91 | 1014.9 |
| 20260505094403 | 56 | 297 | 0.0 | 5.0 | 0.02 | 0.31 | 0.31 | 91 | 1014.8 |
| 20260505094303 | 56 | 297 | 0.0 | 5.0 | 0.01 | 0.30 | 0.30 | 91 | 1014.8 |
| 20260505094203 | 56 | 298 | 0.0 | 5.0 | 0.01 | 0.30 | 0.30 | 91 | 1014.8 |
| 20260505094103 | 56 | 298 | 0.0 | 5.0 | 0.02 | 0.30 | 0.30 | 91 | 1014.9 |
| 20260505094003 | 56 | 297 | 0.0 | 5.0 | 0.02 | 0.30 | 0.30 | 90 | 1014.9 |
| 20260505093903 | 57 | 297 | 0.0 | 5.0 | 0.02 | 0.30 | 0.30 | 91 | 1014.8 |
| 20260505093803 | 57 | 289 | 0.0 | 2.0 | 0.02 | 0.30 | 0.30 | 91 | 1014.8 |
| 20260505093703 | 57 | 286 | 0.0 | 2.0 | 0.02 | 0.30 | 0.30 | 91 | 1014.9 |
| 20260505093603 | 57 | 286 | 0.0 | 3.0 | 0.02 | 0.30 | 0.30 | 91 | 1014.9 |
| 20260505093503 | 57 | 284 | 0.0 | 3.0 | 0.02 | 0.30 | 0.30 | 91 | 1014.9 |
| 20260505093403 | 57 | 284 | 0.0 | 3.0 | 0.02 | 0.30 | 0.30 | 91 | 1014.9 |
| 20260505093303 | 57 | 284 | 0.0 | 3.0 | 0.02 | 0.30 | 0.30 | 90 | 1014.9 |
| 20260505093203 | 57 | 284 | 0.0 | 4.0 | 0.02 | 0.30 | 0.30 | 90 | 1014.8 |
| 20260505093103 | 57 | 282 | 1.0 | 5.0 | 0.02 | 0.30 | 0.30 | 90 | 1014.8 |
| 20260505093004 | 57 | 282 | 1.0 | 6.0 | 0.01 | 0.29 | 0.29 | 90 | 1014.8 |
| 20260505092903 | 57 | 282 | 1.0 | 6.0 | 0.01 | 0.29 | 0.29 | 90 | 1014.9 |
| 20260505092803 | 57 | 282 | 1.0 | 6.0 | 0.01 | 0.29 | 0.29 | 90 | 1014.9 |
| 20260505092703 | 57 | 283 | 1.0 | 6.0 | 0.01 | 0.29 | 0.29 | 90 | 1014.9 |
| 20260505092603 | 57 | 282 | 1.0 | 6.0 | 0.01 | 0.29 | 0.29 | 90 | 1014.8 |
| 20260505092503 | 57 | 282 | 1.0 | 6.0 | 0.01 | 0.29 | 0.29 | 90 | 1014.8 |
| 20260505092403 | 57 | 282 | 1.0 | 6.0 | 0.01 | 0.29 | 0.29 | 89 | 1014.8 |
| 20260505092305 | 57 | 282 | 1.0 | 6.0 | 0.01 | 0.29 | 0.29 | 89 | 1014.8 |
| 20260505092203 | 57 | 282 | 1.0 | 6.0 | 0.01 | 0.29 | 0.29 | 89 | 1014.8 |
| 20260505092103 | 57 | 283 | 0.0 | 6.0 | 0.01 | 0.29 | 0.29 | 90 | 1014.8 |
| 20260505092003 | 57 | 289 | 0.0 | 3.0 | 0.01 | 0.29 | 0.29 | 90 | 1014.8 |
| 20260505091903 | 57 | 291 | 0.0 | 4.0 | 0.01 | 0.29 | 0.29 | 90 | 1014.8 |
| 20260505091803 | 57 | 291 | 0.0 | 4.0 | 0.01 | 0.29 | 0.29 | 90 | 1014.8 |
| 20260505091703 | 57 | 291 | 0.0 | 4.0 | 0.01 | 0.29 | 0.29 | 91 | 1014.8 |
| 20260505091603 | 57 | 291 | 0.0 | 4.0 | 0.01 | 0.29 | 0.29 | 91 | 1014.8 |
| 20260505091504 | 57 | 291 | 0.0 | 4.0 | 0.01 | 0.29 | 0.29 | 90 | 1014.8 |
| 20260505091404 | 57 | 290 | 0.0 | 4.0 | 0.01 | 0.29 | 0.29 | 90 | 1014.7 |
| 20260505091304 | 57 | 290 | 0.0 | 4.0 | 0.01 | 0.29 | 0.29 | 90 | 1014.8 |
| 20260505091204 | 57 | 290 | 0.0 | 4.0 | 0.01 | 0.29 | 0.29 | 90 | 1014.8 |
| 20260505091104 | 57 | 289 | 0.0 | 4.0 | 0.01 | 0.29 | 0.29 | 90 | 1014.8 |
| 20260505091004 | 57 | 289 | 0.0 | 4.0 | 0.01 | 0.29 | 0.29 | 90 | 1014.8 |
| 20260505090904 | 57 | 284 | 0.0 | 2.0 | 0.01 | 0.29 | 0.29 | 91 | 1014.8 |
| 20260505090804 | 57 | 284 | 0.0 | 2.0 | 0.01 | 0.29 | 0.29 | 91 | 1014.7 |
| 20260505090704 | 57 | 284 | 0.0 | 2.0 | 0.01 | 0.29 | 0.29 | 91 | 1014.7 |
| 20260505090604 | 57 | 284 | 0.0 | 2.0 | 0.01 | 0.29 | 0.29 | 91 | 1014.8 |
| 20260505090504 | 57 | 284 | 0.0 | 2.0 | 0.01 | 0.29 | 0.29 | 91 | 1014.7 |
| 20260505090404 | 57 | 285 | 0.0 | 1.0 | 0.01 | 0.29 | 0.29 | 91 | 1014.7 |
| 20260505090304 | 57 | 285 | 0.0 | 1.0 | 0.01 | 0.29 | 0.29 | 91 | 1014.7 |
| 20260505090204 | 57 | 285 | 0.0 | 1.0 | 0.01 | 0.29 | 0.29 | 91 | 1014.7 |
| 20260505090104 | 57 | 283 | 0.0 | 1.0 | 0.01 | 0.29 | 0.29 | 91 | 1014.7 |
| 20260505090004 | 57 | 292 | 0.0 | 1.0 | 0.01 | 0.29 | 0.29 | 92 | 1014.7 |
| 20260505085904 | 57 | 292 | 0.0 | 1.0 | 0.01 | 0.29 | 0.29 | 92 | 1014.7 |
| 20260505085804 | 57 | 292 | 0.0 | 1.0 | 0.01 | 0.29 | 0.29 | 92 | 1014.6 |
| 20260505085704 | 57 | 292 | 0.0 | 1.0 | 0.01 | 0.29 | 0.29 | 92 | 1014.6 |
| 20260505085604 | 57 | 292 | 0.0 | 1.0 | 0.01 | 0.29 | 0.29 | 92 | 1014.6 |
| 20260505085504 | 57 | 292 | 0.0 | 1.0 | 0.01 | 0.29 | 0.29 | 92 | 1014.5 |
| 20260505085403 | 57 | 292 | 0.0 | 1.0 | 0.01 | 0.29 | 0.29 | 92 | 1014.5 |
| 20260505085304 | 57 | 292 | 0.0 | 1.0 | 0.01 | 0.29 | 0.29 | 92 | 1014.5 |
| 20260505085203 | 57 | 292 | 0.0 | 1.0 | 0.01 | 0.29 | 0.29 | 92 | 1014.5 |
| 20260505085103 | 57 | 292 | 0.0 | 1.0 | 0.01 | 0.29 | 0.29 | 92 | 1014.5 |
| 20260505085004 | 57 | 0 | 0.0 | 0.0 | 0.01 | 0.29 | 0.29 | 92 | 1014.5 |
| 20260505084903 | 57 | 0 | 0.0 | 0.0 | 0.01 | 0.29 | 0.29 | 92 | 1014.5 |
| 20260505084803 | 56 | 0 | 0.0 | 0.0 | 0.01 | 0.29 | 0.29 | 92 | 1014.5 |
| 20260505084703 | 56 | 0 | 0.0 | 0.0 | 0.01 | 0.29 | 0.29 | 92 | 1014.4 |
| 20260505084603 | 56 | 0 | 0.0 | 0.0 | 0.01 | 0.29 | 0.29 | 92 | 1014.4 |
| 20260505084503 | 56 | 0 | 0.0 | 0.0 | 0.01 | 0.29 | 0.29 | 92 | 1014.5 |
| 20260505084403 | 56 | 0 | 0.0 | 0.0 | 0.01 | 0.29 | 0.29 | 92 | 1014.5 |
| 20260505084303 | 56 | 0 | 0.0 | 0.0 | 0.01 | 0.29 | 0.29 | 92 | 1014.4 |
| 20260505084203 | 56 | 0 | 0.0 | 0.0 | 0.01 | 0.29 | 0.29 | 92 | 1014.5 |
| 20260505084103 | 56 | 0 | 0.0 | 0.0 | 0.00 | 0.28 | 0.28 | 92 | 1014.5 |
| 20260505084003 | 56 | 0 | 0.0 | 0.0 | 0.00 | 0.28 | 0.28 | 92 | 1014.4 |
| 20260505083903 | 56 | 0 | 0.0 | 0.0 | 0.00 | 0.28 | 0.28 | 92 | 1014.4 |
| 20260505083803 | 56 | 0 | 0.0 | 0.0 | 0.00 | 0.28 | 0.28 | 92 | 1014.4 |
| 20260505083703 | 56 | 0 | 0.0 | 0.0 | 0.00 | 0.28 | 0.28 | 92 | 1014.5 |
| 20260505083603 | 56 | 0 | 0.0 | 0.0 | 0.00 | 0.28 | 0.28 | 92 | 1014.5 |
| 20260505083503 | 56 | 0 | 0.0 | 0.0 | 0.00 | 0.28 | 0.28 | 92 | 1014.5 |
| 20260505083403 | 56 | 0 | 0.0 | 0.0 | 0.00 | 0.28 | 0.28 | 92 | 1014.4 |
| 20260505083303 | 56 | 0 | 0.0 | 0.0 | 0.00 | 0.28 | 0.28 | 92 | 1014.4 |
| 20260505083203 | 56 | 0 | 0.0 | 0.0 | 0.00 | 0.28 | 0.28 | 92 | 1014.4 |
| 20260505083103 | 56 | 0 | 0.0 | 0.0 | 0.00 | 0.28 | 0.28 | 92 | 1014.4 |
| 20260505083003 | 56 | 0 | 0.0 | 0.0 | 0.00 | 0.28 | 0.28 | 92 | 1014.4 |
| 20260505082904 | 56 | 0 | 0.0 | 0.0 | 0.00 | 0.28 | 0.28 | 92 | 1014.5 |
| 20260505082803 | 56 | 0 | 0.0 | 0.0 | 0.00 | 0.28 | 0.28 | 92 | 1014.5 |
| 20260505082703 | 56 | 289 | 0.0 | 3.0 | 0.00 | 0.28 | 0.28 | 92 | 1014.4 |
| 20260505082603 | 56 | 287 | 0.0 | 3.0 | 0.00 | 0.28 | 0.28 | 92 | 1014.4 |
| 20260505082503 | 56 | 288 | 0.0 | 3.0 | 0.00 | 0.28 | 0.28 | 92 | 1014.5 |
| 20260505082403 | 56 | 288 | 0.0 | 3.0 | 0.00 | 0.28 | 0.28 | 91 | 1014.4 |
| 20260505082304 | 56 | 288 | 0.0 | 3.0 | 0.00 | 0.28 | 0.28 | 92 | 1014.4 |
| 20260505082203 | 56 | 288 | 0.0 | 3.0 | 0.00 | 0.28 | 0.28 | 92 | 1014.3 |
| 20260505082103 | 56 | 288 | 1.0 | 3.0 | 0.00 | 0.28 | 0.28 | 92 | 1014.4 |
| 20260505082003 | 56 | 287 | 1.0 | 3.0 | 0.00 | 0.28 | 0.28 | 91 | 1014.4 |
| 20260505081903 | 56 | 287 | 1.0 | 3.0 | 0.00 | 0.28 | 0.28 | 91 | 1014.3 |
| 20260505081803 | 56 | 287 | 1.0 | 3.0 | 0.00 | 0.28 | 0.28 | 91 | 1014.3 |
| 20260505081703 | 56 | 287 | 1.0 | 3.0 | 0.00 | 0.28 | 0.28 | 91 | 1014.4 |
| 20260505081603 | 56 | 287 | 0.0 | 3.0 | 0.00 | 0.28 | 0.28 | 91 | 1014.3 |
| 20260505081503 | 56 | 287 | 0.0 | 3.0 | 0.00 | 0.28 | 0.28 | 92 | 1014.3 |
| 20260505081403 | 56 | 287 | 0.0 | 3.0 | 0.01 | 0.28 | 0.28 | 92 | 1014.3 |
| 20260505081303 | 56 | 287 | 0.0 | 3.0 | 0.01 | 0.28 | 0.28 | 91 | 1014.3 |
| 20260505081204 | 56 | 287 | 1.0 | 3.0 | 0.01 | 0.28 | 0.28 | 92 | 1014.3 |
| 20260505081104 | 56 | 288 | 0.0 | 2.0 | 0.01 | 0.28 | 0.28 | 92 | 1014.3 |
| 20260505081004 | 56 | 288 | 0.0 | 2.0 | 0.01 | 0.28 | 0.28 | 92 | 1014.3 |
| 20260505080904 | 55 | 288 | 0.0 | 2.0 | 0.01 | 0.28 | 0.28 | 91 | 1014.3 |
| 20260505080804 | 55 | 288 | 0.0 | 2.0 | 0.01 | 0.28 | 0.28 | 92 | 1014.3 |
| 20260505080704 | 55 | 289 | 0.0 | 2.0 | 0.01 | 0.28 | 0.28 | 91 | 1014.2 |
| 20260505080604 | 55 | 289 | 0.0 | 2.0 | 0.01 | 0.28 | 0.28 | 91 | 1014.2 |
| 20260505080504 | 55 | 288 | 0.0 | 2.0 | 0.01 | 0.28 | 0.28 | 91 | 1014.2 |
| 20260505080404 | 55 | 287 | 0.0 | 2.0 | 0.01 | 0.28 | 0.28 | 91 | 1014.2 |
| 20260505080304 | 55 | 284 | 0.0 | 4.0 | 0.01 | 0.28 | 0.28 | 91 | 1014.2 |
| 20260505080204 | 55 | 283 | 0.0 | 4.0 | 0.01 | 0.28 | 0.28 | 91 | 1014.2 |
| 20260505080104 | 55 | 283 | 1.0 | 4.0 | 0.01 | 0.28 | 0.28 | 91 | 1014.2 |
| 20260505080004 | 55 | 283 | 1.0 | 4.0 | 0.01 | 0.28 | 0.28 | 92 | 1014.2 |
| 20260505075904 | 55 | 283 | 1.0 | 4.0 | 0.01 | 0.28 | 0.28 | 92 | 1014.2 |
| 20260505075804 | 55 | 283 | 1.0 | 4.0 | 0.01 | 0.28 | 0.28 | 92 | 1014.3 |
| 20260505075703 | 55 | 283 | 1.0 | 6.0 | 0.01 | 0.28 | 0.28 | 91 | 1014.3 |
| 20260505075604 | 55 | 283 | 1.0 | 6.0 | 0.01 | 0.28 | 0.28 | 91 | 1014.2 |
| 20260505075504 | 55 | 283 | 2.0 | 6.0 | 0.02 | 0.28 | 0.28 | 91 | 1014.2 |
| 20260505075403 | 55 | 284 | 2.0 | 6.0 | 0.02 | 0.28 | 0.28 | 91 | 1014.2 |
| 20260505075304 | 55 | 284 | 2.0 | 6.0 | 0.02 | 0.28 | 0.28 | 91 | 1014.2 |
| 20260505075203 | 55 | 284 | 2.0 | 6.0 | 0.02 | 0.28 | 0.28 | 92 | 1014.2 |
| 20260505075103 | 55 | 284 | 2.0 | 6.0 | 0.02 | 0.28 | 0.28 | 91 | 1014.2 |
| 20260505075004 | 55 | 284 | 3.0 | 7.0 | 0.02 | 0.28 | 0.28 | 91 | 1014.2 |
| 20260505074903 | 55 | 284 | 3.0 | 7.0 | 0.02 | 0.28 | 0.28 | 91 | 1014.2 |
| 20260505074803 | 55 | 284 | 3.0 | 7.0 | 0.02 | 0.28 | 0.28 | 91 | 1014.2 |
| 20260505074703 | 55 | 284 | 2.0 | 7.0 | 0.02 | 0.28 | 0.28 | 91 | 1014.2 |
| 20260505074603 | 55 | 285 | 2.0 | 7.0 | 0.02 | 0.28 | 0.28 | 92 | 1014.2 |
| 20260505074503 | 55 | 284 | 2.0 | 7.0 | 0.02 | 0.28 | 0.28 | 92 | 1014.2 |
| 20260505074403 | 55 | 284 | 1.0 | 7.0 | 0.02 | 0.28 | 0.28 | 92 | 1014.2 |
| 20260505074303 | 55 | 284 | 1.0 | 7.0 | 0.02 | 0.28 | 0.28 | 92 | 1014.1 |
| 20260505074203 | 55 | 285 | 1.0 | 7.0 | 0.02 | 0.28 | 0.28 | 92 | 1014.1 |
| 20260505074103 | 55 | 284 | 1.0 | 7.0 | 0.02 | 0.28 | 0.28 | 92 | 1014.2 |
| 20260505074003 | 55 | 284 | 1.0 | 5.0 | 0.02 | 0.28 | 0.28 | 92 | 1014.2 |
| 20260505073903 | 55 | 284 | 1.0 | 5.0 | 0.02 | 0.28 | 0.28 | 92 | 1014.2 |
| 20260505073803 | 55 | 284 | 1.0 | 5.0 | 0.02 | 0.28 | 0.28 | 92 | 1014.1 |
| 20260505073703 | 55 | 284 | 2.0 | 6.0 | 0.02 | 0.28 | 0.28 | 92 | 1014.1 |
| 20260505073603 | 55 | 284 | 2.0 | 8.0 | 0.02 | 0.28 | 0.28 | 92 | 1014.2 |
| 20260505073503 | 55 | 284 | 2.0 | 8.0 | 0.02 | 0.28 | 0.28 | 92 | 1014.1 |
| 20260505073403 | 55 | 283 | 2.0 | 8.0 | 0.02 | 0.28 | 0.28 | 92 | 1014.1 |
| 20260505073303 | 55 | 283 | 2.0 | 8.0 | 0.03 | 0.28 | 0.28 | 92 | 1014.1 |
| 20260505073203 | 55 | 282 | 3.0 | 8.0 | 0.03 | 0.28 | 0.28 | 92 | 1014.1 |
| 20260505073103 | 55 | 282 | 3.0 | 8.0 | 0.03 | 0.28 | 0.28 | 92 | 1014.1 |
| 20260505073003 | 54 | 283 | 3.0 | 8.0 | 0.03 | 0.28 | 0.28 | 92 | 1014.1 |
| 20260505072903 | 54 | 283 | 3.0 | 8.0 | 0.03 | 0.28 | 0.28 | 92 | 1014.1 |
| 20260505072803 | 54 | 282 | 3.0 | 8.0 | 0.03 | 0.28 | 0.28 | 92 | 1014.1 |
| 20260505072703 | 54 | 283 | 3.0 | 8.0 | 0.04 | 0.28 | 0.28 | 92 | 1014.1 |
| 20260505072603 | 54 | 282 | 3.0 | 7.0 | 0.04 | 0.28 | 0.28 | 92 | 1014.1 |
| 20260505072503 | 54 | 283 | 3.0 | 7.0 | 0.04 | 0.28 | 0.28 | 92 | 1014.1 |
| 20260505072403 | 54 | 283 | 3.0 | 7.0 | 0.04 | 0.28 | 0.28 | 92 | 1014.1 |
| 20260505072305 | 54 | 282 | 3.0 | 7.0 | 0.04 | 0.28 | 0.28 | 92 | 1014.2 |
| 20260505072203 | 54 | 283 | 2.0 | 7.0 | 0.04 | 0.28 | 0.28 | 92 | 1014.1 |
| 20260505072103 | 54 | 283 | 2.0 | 7.0 | 0.05 | 0.28 | 0.28 | 92 | 1014.1 |
| 20260505072003 | 54 | 283 | 2.0 | 7.0 | 0.05 | 0.28 | 0.28 | 92 | 1014.1 |
| 20260505071903 | 54 | 283 | 2.0 | 7.0 | 0.05 | 0.28 | 0.28 | 92 | 1014.1 |
| 20260505071803 | 54 | 283 | 2.0 | 7.0 | 0.05 | 0.28 | 0.28 | 92 | 1014.2 |
| 20260505071703 | 54 | 283 | 1.0 | 7.0 | 0.06 | 0.28 | 0.28 | 92 | 1014.2 |
| 20260505071603 | 54 | 283 | 1.0 | 7.0 | 0.06 | 0.28 | 0.28 | 93 | 1014.2 |
| 20260505071503 | 55 | 283 | 1.0 | 7.0 | 0.06 | 0.28 | 0.28 | 93 | 1014.2 |
| 20260505071404 | 55 | 283 | 1.0 | 4.0 | 0.05 | 0.28 | 0.28 | 93 | 1014.2 |
| 20260505071304 | 55 | 283 | 1.0 | 5.0 | 0.06 | 0.28 | 0.28 | 93 | 1014.2 |
| 20260505071204 | 54 | 283 | 1.0 | 5.0 | 0.06 | 0.28 | 0.28 | 93 | 1014.2 |
| 20260505071104 | 54 | 283 | 1.0 | 5.0 | 0.06 | 0.28 | 0.28 | 93 | 1014.2 |
| 20260505071003 | 54 | 283 | 1.0 | 5.0 | 0.08 | 0.28 | 0.28 | 93 | 1014.2 |
| 20260505070904 | 54 | 283 | 1.0 | 5.0 | 0.08 | 0.28 | 0.28 | 93 | 1014.2 |
| 20260505070804 | 54 | 283 | 1.0 | 5.0 | 0.09 | 0.28 | 0.28 | 93 | 1014.2 |
| 20260505070704 | 54 | 282 | 1.0 | 5.0 | 0.09 | 0.28 | 0.28 | 93 | 1014.3 |
| 20260505070604 | 54 | 282 | 1.0 | 5.0 | 0.10 | 0.28 | 0.28 | 93 | 1014.3 |
| 20260505070504 | 54 | 282 | 1.0 | 5.0 | 0.10 | 0.28 | 0.28 | 93 | 1014.3 |
| 20260505070404 | 54 | 282 | 0.0 | 5.0 | 0.11 | 0.28 | 0.28 | 93 | 1014.3 |
| 20260505070304 | 54 | 280 | 0.0 | 3.0 | 0.12 | 0.28 | 0.28 | 93 | 1014.3 |
| 20260505070204 | 54 | 277 | 0.0 | 3.0 | 0.12 | 0.28 | 0.28 | 93 | 1014.3 |
| 20260505070104 | 54 | 277 | 0.0 | 3.0 | 0.13 | 0.28 | 0.28 | 93 | 1014.2 |
| 20260505070004 | 54 | 277 | 0.0 | 3.0 | 0.13 | 0.28 | 0.28 | 93 | 1014.2 |
| 20260505065904 | 54 | 277 | 0.0 | 3.0 | 0.13 | 0.28 | 0.28 | 93 | 1014.4 |
| 20260505065804 | 54 | 285 | 0.0 | 1.0 | 0.14 | 0.28 | 0.28 | 93 | 1014.4 |
| 20260505065704 | 54 | 285 | 0.0 | 1.0 | 0.14 | 0.28 | 0.28 | 93 | 1014.4 |
| 20260505065603 | 54 | 285 | 0.0 | 1.0 | 0.14 | 0.27 | 0.27 | 93 | 1014.4 |
| 20260505065504 | 54 | 285 | 0.0 | 1.0 | 0.14 | 0.27 | 0.27 | 93 | 1014.4 |
| 20260505065403 | 54 | 285 | 0.0 | 1.0 | 0.15 | 0.27 | 0.27 | 93 | 1014.3 |
| 20260505065304 | 54 | 285 | 0.0 | 1.0 | 0.15 | 0.27 | 0.27 | 93 | 1014.3 |
| 20260505065203 | 54 | 285 | 0.0 | 1.0 | 0.16 | 0.27 | 0.27 | 93 | 1014.3 |
| 20260505065103 | 54 | 284 | 0.0 | 1.0 | 0.16 | 0.27 | 0.27 | 93 | 1014.2 |
| 20260505065004 | 54 | 284 | 0.0 | 2.0 | 0.16 | 0.27 | 0.27 | 93 | 1014.2 |
| 20260505064903 | 54 | 284 | 0.0 | 2.0 | 0.17 | 0.27 | 0.27 | 93 | 1014.3 |
| 20260505064803 | 54 | 284 | 0.0 | 3.0 | 0.17 | 0.27 | 0.27 | 93 | 1014.3 |
| 20260505064703 | 54 | 283 | 0.0 | 4.0 | 0.17 | 0.27 | 0.27 | 93 | 1014.3 |
| 20260505064603 | 54 | 283 | 0.0 | 4.0 | 0.17 | 0.27 | 0.27 | 93 | 1014.2 |
| 20260505064503 | 54 | 283 | 1.0 | 4.0 | 0.17 | 0.27 | 0.27 | 93 | 1014.2 |
| 20260505064403 | 54 | 283 | 1.0 | 4.0 | 0.17 | 0.27 | 0.27 | 93 | 1014.2 |
| 20260505064303 | 54 | 283 | 1.0 | 5.0 | 0.17 | 0.26 | 0.26 | 93 | 1014.1 |
| 20260505064203 | 54 | 283 | 1.0 | 5.0 | 0.17 | 0.26 | 0.26 | 93 | 1014.1 |
| 20260505064103 | 54 | 282 | 1.0 | 5.0 | 0.17 | 0.26 | 0.26 | 93 | 1014.1 |
| 20260505064003 | 54 | 281 | 2.0 | 6.0 | 0.17 | 0.26 | 0.26 | 93 | 1014.1 |
| 20260505063903 | 54 | 281 | 2.0 | 6.0 | 0.17 | 0.26 | 0.26 | 93 | 1014.2 |
| 20260505063803 | 54 | 280 | 2.0 | 6.0 | 0.17 | 0.26 | 0.26 | 93 | 1014.1 |
| 20260505063704 | 54 | 281 | 2.0 | 7.0 | 0.17 | 0.26 | 0.26 | 93 | 1014.1 |
| 20260505063603 | 54 | 281 | 2.0 | 7.0 | 0.17 | 0.26 | 0.26 | 93 | 1014.1 |
| 20260505063503 | 54 | 281 | 3.0 | 7.0 | 0.18 | 0.26 | 0.26 | 93 | 1014.1 |
| 20260505063403 | 54 | 281 | 3.0 | 7.0 | 0.17 | 0.25 | 0.25 | 93 | 1014.1 |
| 20260505063303 | 54 | 281 | 3.0 | 7.0 | 0.17 | 0.25 | 0.25 | 93 | 1014.1 |
| 20260505063203 | 54 | 281 | 3.0 | 7.0 | 0.17 | 0.25 | 0.25 | 92 | 1014.1 |
| 20260505063103 | 54 | 282 | 3.0 | 7.0 | 0.17 | 0.25 | 0.25 | 92 | 1014.1 |
| 20260505063003 | 54 | 283 | 3.0 | 7.0 | 0.17 | 0.25 | 0.25 | 92 | 1014.1 |
| 20260505062903 | 54 | 283 | 3.0 | 7.0 | 0.18 | 0.25 | 0.25 | 92 | 1014.0 |
| 20260505062803 | 54 | 283 | 3.0 | 7.0 | 0.17 | 0.24 | 0.24 | 92 | 1013.9 |
| 20260505062703 | 54 | 283 | 3.0 | 7.0 | 0.17 | 0.24 | 0.24 | 92 | 1013.9 |
| 20260505062603 | 54 | 283 | 3.0 | 7.0 | 0.18 | 0.24 | 0.24 | 92 | 1013.9 |
| 20260505062503 | 54 | 283 | 3.0 | 7.0 | 0.18 | 0.24 | 0.24 | 92 | 1014.0 |
| 20260505062403 | 54 | 282 | 3.0 | 7.0 | 0.18 | 0.24 | 0.24 | 92 | 1014.0 |
| 20260505062304 | 54 | 282 | 3.0 | 7.0 | 0.18 | 0.24 | 0.24 | 92 | 1014.1 |
| 20260505062203 | 54 | 282 | 3.0 | 7.0 | 0.19 | 0.24 | 0.24 | 92 | 1014.1 |
| 20260505062104 | 54 | 282 | 3.0 | 7.0 | 0.18 | 0.24 | 0.24 | 92 | 1014.0 |
| 20260505062004 | 54 | 282 | 3.0 | 7.0 | 0.18 | 0.24 | 0.24 | 92 | 1014.2 |
| 20260505061904 | 54 | 282 | 2.0 | 7.0 | 0.18 | 0.24 | 0.24 | 92 | 1014.2 |
| 20260505061804 | 54 | 282 | 2.0 | 5.0 | 0.19 | 0.24 | 0.24 | 91 | 1014.1 |
| 20260505061704 | 54 | 283 | 2.0 | 5.0 | 0.18 | 0.23 | 0.23 | 91 | 1014.1 |
| 20260505061604 | 54 | 283 | 2.0 | 5.0 | 0.18 | 0.23 | 0.23 | 91 | 1014.2 |
| 20260505061504 | 54 | 283 | 1.0 | 5.0 | 0.18 | 0.23 | 0.23 | 91 | 1014.1 |
| 20260505061404 | 54 | 284 | 1.0 | 5.0 | 0.18 | 0.22 | 0.22 | 91 | 1014.1 |
| 20260505061304 | 54 | 285 | 1.0 | 4.0 | 0.18 | 0.22 | 0.22 | 91 | 1014.1 |
| 20260505061204 | 54 | 285 | 1.0 | 4.0 | 0.17 | 0.21 | 0.21 | 91 | 1014.2 |
| 20260505061104 | 54 | 286 | 1.0 | 3.0 | 0.17 | 0.20 | 0.20 | 91 | 1014.2 |
| 20260505061004 | 54 | 286 | 1.0 | 3.0 | 0.16 | 0.20 | 0.20 | 91 | 1014.3 |
| 20260505060904 | 54 | 286 | 1.0 | 3.0 | 0.15 | 0.19 | 0.19 | 91 | 1014.3 |
| 20260505060804 | 54 | 286 | 0.0 | 3.0 | 0.14 | 0.18 | 0.18 | 91 | 1014.2 |
| 20260505060704 | 54 | 286 | 0.0 | 3.0 | 0.13 | 0.17 | 0.17 | 91 | 1014.4 |
| 20260505060604 | 54 | 286 | 0.0 | 3.0 | 0.13 | 0.17 | 0.17 | 91 | 1014.4 |
| 20260505060504 | 54 | 285 | 0.0 | 3.0 | 0.13 | 0.17 | 0.17 | 91 | 1014.5 |
| 20260505060404 | 54 | 286 | 0.0 | 3.0 | 0.12 | 0.16 | 0.16 | 91 | 1014.5 |
| 20260505060304 | 54 | 284 | 0.0 | 1.0 | 0.12 | 0.16 | 0.16 | 91 | 1014.5 |
| 20260505060204 | 54 | 284 | 0.0 | 1.0 | 0.11 | 0.15 | 0.15 | 91 | 1014.5 |
| 20260505060104 | 54 | 0 | 0.0 | 0.0 | 0.10 | 0.14 | 0.15 | 90 | 1014.5 |
| 20260505060004 | 54 | 0 | 0.0 | 0.0 | 0.10 | 0.14 | 0.14 | 90 | 1014.4 |
| 20260505055903 | 54 | 0 | 0.0 | 0.0 | 0.10 | 0.13 | 0.13 | 90 | 1014.4 |
| 20260505055803 | 54 | 0 | 0.0 | 0.0 | 0.10 | 0.13 | 0.13 | 90 | 1014.5 |
| 20260505055703 | 54 | 0 | 0.0 | 0.0 | 0.09 | 0.13 | 0.13 | 90 | 1014.4 |
| 20260505055603 | 54 | 0 | 0.0 | 0.0 | 0.09 | 0.13 | 0.13 | 90 | 1014.4 |
| 20260505055503 | 54 | 0 | 0.0 | 0.0 | 0.09 | 0.12 | 0.12 | 90 | 1014.5 |
| 20260505055403 | 54 | 0 | 0.0 | 0.0 | 0.09 | 0.12 | 0.12 | 90 | 1014.6 |
| 20260505055304 | 54 | 0 | 0.0 | 0.0 | 0.08 | 0.11 | 0.12 | 90 | 1014.6 |
| 20260505055203 | 54 | 0 | 0.0 | 0.0 | 0.08 | 0.11 | 0.11 | 90 | 1014.6 |
| 20260505055103 | 54 | 276 | 0.0 | 2.0 | 0.08 | 0.11 | 0.11 | 90 | 1014.6 |
| 20260505055003 | 54 | 276 | 0.0 | 2.0 | 0.07 | 0.10 | 0.10 | 90 | 1014.6 |
| 20260505054903 | 54 | 276 | 0.0 | 2.0 | 0.07 | 0.10 | 0.10 | 90 | 1014.7 |
| 20260505054803 | 54 | 276 | 0.0 | 2.0 | 0.07 | 0.10 | 0.10 | 90 | 1014.7 |
| 20260505054703 | 54 | 276 | 0.0 | 2.0 | 0.06 | 0.09 | 0.09 | 90 | 1014.6 |
| 20260505054603 | 54 | 276 | 1.0 | 2.0 | 0.06 | 0.09 | 0.09 | 89 | 1014.6 |
| 20260505054503 | 54 | 276 | 1.0 | 2.0 | 0.06 | 0.09 | 0.09 | 89 | 1014.6 |
| 20260505054403 | 54 | 276 | 1.0 | 2.0 | 0.06 | 0.09 | 0.09 | 89 | 1014.6 |
| 20260505054304 | 54 | 276 | 1.0 | 2.0 | 0.06 | 0.09 | 0.09 | 89 | 1014.6 |
| 20260505054203 | 54 | 276 | 1.0 | 3.0 | 0.06 | 0.09 | 0.09 | 89 | 1014.6 |
| 20260505054103 | 54 | 277 | 1.0 | 3.0 | 0.06 | 0.09 | 0.09 | 89 | 1014.6 |
| 20260505054003 | 54 | 278 | 1.0 | 3.0 | 0.06 | 0.09 | 0.09 | 89 | 1014.5 |
| 20260505053903 | 54 | 278 | 1.0 | 3.0 | 0.06 | 0.09 | 0.09 | 89 | 1014.5 |
| 20260505053803 | 54 | 278 | 1.0 | 3.0 | 0.06 | 0.09 | 0.09 | 89 | 1014.5 |
| 20260505053703 | 54 | 279 | 1.0 | 3.0 | 0.06 | 0.09 | 0.09 | 89 | 1014.4 |
| 20260505053603 | 54 | 279 | 1.0 | 3.0 | 0.06 | 0.08 | 0.08 | 89 | 1014.2 |
| 20260505053503 | 54 | 279 | 1.0 | 3.0 | 0.06 | 0.08 | 0.08 | 89 | 1014.2 |
| 20260505053403 | 54 | 280 | 1.0 | 3.0 | 0.06 | 0.08 | 0.08 | 89 | 1014.2 |
| 20260505053303 | 54 | 280 | 1.0 | 3.0 | 0.06 | 0.08 | 0.08 | 89 | 1014.2 |
| 20260505053203 | 55 | 280 | 1.0 | 3.0 | 0.06 | 0.08 | 0.08 | 88 | 1014.2 |
| 20260505053103 | 55 | 280 | 1.0 | 3.0 | 0.06 | 0.08 | 0.08 | 88 | 1014.2 |
| 20260505053003 | 55 | 280 | 1.0 | 4.0 | 0.06 | 0.07 | 0.07 | 88 | 1014.2 |
| 20260505052903 | 55 | 280 | 1.0 | 4.0 | 0.06 | 0.07 | 0.07 | 88 | 1014.2 |
| 20260505052804 | 55 | 280 | 1.0 | 4.0 | 0.06 | 0.07 | 0.07 | 88 | 1014.2 |
| 20260505052704 | 55 | 280 | 1.0 | 4.0 | 0.06 | 0.07 | 0.07 | 88 | 1014.1 |
| 20260505052604 | 55 | 280 | 1.0 | 4.0 | 0.06 | 0.06 | 0.06 | 88 | 1014.2 |
| 20260505052504 | 55 | 280 | 1.0 | 4.0 | 0.06 | 0.06 | 0.06 | 88 | 1014.2 |
| 20260505052404 | 55 | 280 | 1.0 | 4.0 | 0.06 | 0.06 | 0.06 | 87 | 1014.1 |
| 20260505052304 | 55 | 279 | 1.0 | 4.0 | 0.06 | 0.06 | 0.06 | 87 | 1014.1 |
| 20260505052204 | 55 | 279 | 1.0 | 4.0 | 0.05 | 0.06 | 0.06 | 87 | 1014.1 |
| 20260505052104 | 55 | 279 | 1.0 | 4.0 | 0.05 | 0.06 | 0.06 | 87 | 1014.2 |
| 20260505052004 | 55 | 279 | 1.0 | 3.0 | 0.05 | 0.06 | 0.06 | 87 | 1014.2 |
| 20260505051904 | 55 | 280 | 1.0 | 3.0 | 0.04 | 0.05 | 0.05 | 87 | 1014.1 |
| 20260505051804 | 55 | 279 | 1.0 | 3.0 | 0.04 | 0.05 | 0.05 | 87 | 1014.2 |
| 20260505051704 | 55 | 279 | 1.0 | 3.0 | 0.04 | 0.05 | 0.05 | 87 | 1014.2 |
| 20260505051604 | 55 | 279 | 1.0 | 3.0 | 0.04 | 0.05 | 0.05 | 87 | 1014.1 |
| 20260505051504 | 55 | 279 | 0.0 | 3.0 | 0.03 | 0.04 | 0.04 | 87 | 1014.1 |
| 20260505051404 | 55 | 279 | 0.0 | 3.0 | 0.03 | 0.04 | 0.04 | 87 | 1014.1 |
| 20260505051304 | 55 | 279 | 0.0 | 3.0 | 0.03 | 0.04 | 0.04 | 87 | 1014.1 |
| 20260505051204 | 55 | 278 | 0.0 | 3.0 | 0.04 | 0.04 | 0.04 | 87 | 1014.1 |
| 20260505051104 | 55 | 278 | 0.0 | 3.0 | 0.04 | 0.04 | 0.04 | 87 | 1014.2 |
| 20260505051004 | 55 | 278 | 0.0 | 3.0 | 0.04 | 0.04 | 0.04 | 87 | 1014.2 |
| 20260505050904 | 55 | 277 | 0.0 | 4.0 | 0.04 | 0.04 | 0.04 | 87 | 1014.1 |
| 20260505050804 | 55 | 277 | 1.0 | 4.0 | 0.04 | 0.04 | 0.04 | 87 | 1014.2 |
| 20260505050704 | 55 | 277 | 1.0 | 4.0 | 0.04 | 0.04 | 0.04 | 87 | 1014.2 |
| 20260505050603 | 55 | 277 | 1.0 | 4.0 | 0.04 | 0.04 | 0.04 | 87 | 1014.1 |
| 20260505050503 | 55 | 277 | 1.0 | 4.0 | 0.04 | 0.04 | 0.04 | 87 | 1014.0 |
| 20260505050403 | 55 | 277 | 1.0 | 4.0 | 0.04 | 0.04 | 0.04 | 87 | 1014.0 |
| 20260505050303 | 55 | 277 | 1.0 | 4.0 | 0.04 | 0.04 | 0.04 | 87 | 1014.0 |
| 20260505050203 | 55 | 277 | 1.0 | 4.0 | 0.04 | 0.04 | 0.04 | 86 | 1014.0 |
| 20260505050103 | 55 | 278 | 2.0 | 5.0 | 0.04 | 0.04 | 0.04 | 86 | 1014.0 |
| 20260505041704 | 56 | 0 | 0.0 | 0.0 | 0.01 | 0.01 | 0.01 | 87 | 1013.6 |
| 20260505041604 | 56 | 0 | 0.0 | 0.0 | 0.01 | 0.01 | 0.01 | 87 | 1013.6 |
| 20260505041504 | 56 | 0 | 0.0 | 0.0 | 0.01 | 0.01 | 0.01 | 87 | 1013.6 |
| 20260505041404 | 56 | 0 | 0.0 | 0.0 | 0.01 | 0.01 | 0.01 | 87 | 1013.6 |
| 20260505041304 | 56 | 0 | 0.0 | 0.0 | 0.01 | 0.01 | 0.01 | 86 | 1013.6 |
| 20260505041204 | 56 | 0 | 0.0 | 0.0 | 0.00 | 0.00 | 0.00 | 86 | 1013.6 |
| 20260505041104 | 56 | 0 | 0.0 | 0.0 | 0.00 | 0.00 | 0.00 | 86 | 1013.6 |
| 20260505041004 | 56 | 0 | 0.0 | 0.0 | 0.00 | 0.00 | 0.00 | 86 | 1013.6 |
| 20260505040904 | 56 | 0 | 0.0 | 0.0 | 0.00 | 0.00 | 0.00 | 86 | 1013.6 |
| 20260505040803 | 56 | 0 | 0.0 | 0.0 | 0.00 | 0.00 | 0.00 | 86 | 1013.6 |
| 20260505040703 | 56 | 0 | 0.0 | 0.0 | 0.00 | 0.00 | 0.00 | 86 | 1013.6 |
| 20260505040604 | 56 | 0 | 0.0 | 0.0 | 0.00 | 0.00 | 0.00 | 86 | 1013.6 |
| 20260505040503 | 56 | 0 | 0.0 | 0.0 | 0.00 | 0.00 | 0.00 | 86 | 1013.6 |
| 20260505040403 | 56 | 0 | 0.0 | 0.0 | 0.00 | 0.00 | 0.00 | 86 | 1013.6 |
| 20260505040303 | 56 | 0 | 0.0 | 0.0 | 0.00 | 0.00 | 0.00 | 86 | 1013.6 |
| 20260505040203 | 56 | 0 | 0.0 | 0.0 | 0.00 | 0.00 | 0.00 | 86 | 1013.5 |
| 20260505040103 | 56 | 0 | 0.0 | 0.0 | 0.00 | 0.00 | 0.00 | 86 | 1013.5 |
| 20260505040005 | 56 | 0 | 0.0 | 0.0 | 0.00 | 0.00 | 0.00 | 86 | 1013.5 |
| 20260505035903 | 56 | 0 | 0.0 | 0.0 | 0.00 | 0.00 | 0.00 | 87 | 1013.5 |
| 20260505035803 | 56 | 0 | 0.0 | 0.0 | 0.00 | 0.00 | 0.00 | 87 | 1013.5 |
| 20260505035703 | 56 | 0 | 0.0 | 0.0 | 0.00 | 0.00 | 0.00 | 87 | 1013.5 |
| 20260505035603 | 56 | 0 | 0.0 | 0.0 | 0.00 | 0.00 | 0.00 | 87 | 1013.5 |
| 20260505035503 | 56 | 0 | 0.0 | 0.0 | 0.00 | 0.00 | 0.00 | 87 | 1013.5 |
| 20260505035403 | 56 | 0 | 0.0 | 0.0 | 0.00 | 0.00 | 0.00 | 87 | 1013.5 |
| 20260505035304 | 56 | 0 | 0.0 | 0.0 | 0.00 | 0.00 | 0.00 | 87 | 1013.5 |
| 20260505035203 | 56 | 0 | 0.0 | 0.0 | 0.00 | 0.00 | 0.00 | 87 | 1013.5 |
| 20260505035103 | 56 | 0 | 0.0 | 0.0 | 0.00 | 0.00 | 0.00 | 87 | 1013.6 |
| 20260505035004 | 56 | 0 | 0.0 | 0.0 | 0.00 | 0.00 | 0.00 | 87 | 1013.6 |
| 20260505034903 | 56 | 0 | 0.0 | 0.0 | 0.00 | 0.00 | 0.00 | 87 | 1013.6 |
| 20260505034803 | 56 | 0 | 0.0 | 0.0 | 0.00 | 0.00 | 0.00 | 88 | 1013.6 |
| 20260505034703 | 56 | 0 | 0.0 | 0.0 | 0.00 | 0.00 | 0.00 | 88 | 1013.6 |
| 20260505034603 | 57 | 0 | 0.0 | 0.0 | 0.00 | 0.00 | 0.00 | 88 | 1013.6 |
| 20260505034503 | 57 | 0 | 0.0 | 0.0 | 0.00 | 0.00 | 0.00 | 88 | 1013.6 |
| 20260505034403 | 57 | 0 | 0.0 | 0.0 | 0.00 | 0.00 | 0.00 | 88 | 1013.6 |
| 20260505034303 | 57 | 0 | 0.0 | 0.0 | 0.00 | 0.00 | 0.00 | 88 | 1013.6 |
| 20260505034203 | 57 | 0 | 0.0 | 0.0 | 0.00 | 0.00 | 0.00 | 88 | 1013.6 |
| 20260505034103 | 57 | 0 | 0.0 | 0.0 | 0.00 | 0.00 | 0.00 | 88 | 1013.7 |
| 20260505034003 | 57 | 0 | 0.0 | 0.0 | 0.00 | 0.00 | 0.00 | 88 | 1013.6 |
| 20260505033903 | 57 | 0 | 0.0 | 0.0 | 0.00 | 0.00 | 0.00 | 88 | 1013.6 |
| 20260505033803 | 57 | 0 | 0.0 | 0.0 | 0.00 | 0.00 | 0.00 | 88 | 1013.7 |
| 20260505033703 | 57 | 0 | 0.0 | 0.0 | 0.00 | 0.00 | 0.00 | 88 | 1013.7 |
| 20260505033603 | 57 | 0 | 0.0 | 0.0 | 0.00 | 0.00 | 0.00 | 87 | 1013.7 |
| 20260505033503 | 57 | 0 | 0.0 | 0.0 | 0.00 | 0.00 | 0.00 | 87 | 1013.7 |
| 20260505033403 | 57 | 0 | 0.0 | 0.0 | 0.00 | 0.00 | 0.00 | 87 | 1013.7 |
| 20260505033303 | 57 | 0 | 0.0 | 0.0 | 0.00 | 0.00 | 0.00 | 87 | 1013.7 |
| 20260505033203 | 57 | 0 | 0.0 | 0.0 | 0.00 | 0.00 | 0.00 | 87 | 1013.7 |
| 20260505033103 | 57 | 0 | 0.0 | 0.0 | 0.00 | 0.00 | 0.00 | 87 | 1013.7 |
| 20260505033004 | 57 | 0 | 0.0 | 0.0 | 0.00 | 0.00 | 0.00 | 87 | 1013.7 |
| 20260505032904 | 57 | 0 | 0.0 | 0.0 | 0.00 | 0.00 | 0.00 | 86 | 1013.7 |
| 20260505032804 | 57 | 0 | 0.0 | 0.0 | 0.00 | 0.00 | 0.00 | 86 | 1013.7 |
| 20260505032704 | 57 | 0 | 0.0 | 0.0 | 0.00 | 0.00 | 0.00 | 86 | 1013.7 |
| 20260505032604 | 57 | 0 | 0.0 | 0.0 | 0.00 | 0.00 | 0.00 | 86 | 1013.7 |
| 20260505032504 | 57 | 0 | 0.0 | 0.0 | 0.00 | 0.00 | 0.00 | 86 | 1013.8 |
| 20260505032404 | 57 | 0 | 0.0 | 0.0 | 0.00 | 0.00 | 0.00 | 86 | 1013.8 |
| 20260505032304 | 57 | 0 | 0.0 | 0.0 | 0.00 | 0.00 | 0.00 | 85 | 1013.8 |
| 20260505032204 | 57 | 0 | 0.0 | 0.0 | 0.00 | 0.00 | 0.00 | 85 | 1013.8 |
| 20260505032104 | 57 | 0 | 0.0 | 0.0 | 0.00 | 0.00 | 0.00 | 85 | 1013.8 |
| 20260505032004 | 57 | 0 | 0.0 | 0.0 | 0.00 | 0.00 | 0.00 | 85 | 1013.8 |
| 20260505031904 | 57 | 0 | 0.0 | 0.0 | 0.00 | 0.00 | 0.00 | 85 | 1013.8 |
| 20260505031804 | 57 | 0 | 0.0 | 0.0 | 0.00 | 0.00 | 0.00 | 85 | 1013.8 |
| 20260505031704 | 57 | 0 | 0.0 | 0.0 | 0.00 | 0.00 | 0.00 | 84 | 1013.8 |
| 20260505031604 | 57 | 0 | 0.0 | 0.0 | 0.00 | 0.00 | 0.00 | 84 | 1013.8 |
| 20260505031504 | 57 | 0 | 0.0 | 0.0 | 0.00 | 0.00 | 0.00 | 84 | 1013.8 |
| 20260505031404 | 57 | 0 | 0.0 | 0.0 | 0.00 | 0.00 | 0.00 | 84 | 1013.8 |
| 20260505031304 | 57 | 0 | 0.0 | 0.0 | 0.00 | 0.00 | 0.00 | 84 | 1013.9 |
| 20260505031204 | 57 | 0 | 0.0 | 0.0 | 0.00 | 0.00 | 0.00 | 84 | 1013.9 |
| 20260505031104 | 57 | 0 | 0.0 | 0.0 | 0.00 | 0.00 | 0.00 | 84 | 1013.9 |
| 20260505031004 | 57 | 0 | 0.0 | 0.0 | 0.00 | 0.00 | 0.00 | 84 | 1013.8 |
| 20260505030903 | 57 | 0 | 0.0 | 0.0 | 0.00 | 0.00 | 0.00 | 84 | 1013.9 |
| 20260505030803 | 57 | 0 | 0.0 | 0.0 | 0.00 | 0.00 | 0.00 | 83 | 1013.9 |
| 20260505030703 | 57 | 0 | 0.0 | 0.0 | 0.00 | 0.00 | 0.00 | 83 | 1013.9 |
| 20260505030603 | 57 | 0 | 0.0 | 0.0 | 0.00 | 0.00 | 0.00 | 83 | 1013.9 |
| 20260505030503 | 58 | 0 | 0.0 | 0.0 | 0.00 | 0.00 | 0.00 | 83 | 1013.9 |
| 20260505030403 | 58 | 0 | 0.0 | 0.0 | 0.00 | 0.00 | 0.00 | 83 | 1014.0 |
| 20260505030303 | 58 | 0 | 0.0 | 0.0 | 0.00 | 0.00 | 0.00 | 83 | 1014.0 |
| 20260505030203 | 58 | 0 | 0.0 | 0.0 | 0.00 | 0.00 | 0.00 | 83 | 1013.9 |
| 20260505030103 | 58 | 0 | 0.0 | 0.0 | 0.00 | 0.00 | 0.00 | 83 | 1013.9 |
| 20260505030004 | 58 | 0 | 0.0 | 0.0 | 0.00 | 0.00 | 0.00 | 82 | 1014.0 |
| 20260505025903 | 58 | 0 | 0.0 | 0.0 | 0.00 | 0.00 | 0.00 | 82 | 1014.0 |
| 20260505025803 | 58 | 0 | 0.0 | 0.0 | 0.00 | 0.00 | 0.00 | 82 | 1014.0 |
| 20260505025703 | 58 | 0 | 0.0 | 0.0 | 0.00 | 0.00 | 0.00 | 82 | 1014.0 |
| 20260505025603 | 58 | 0 | 0.0 | 0.0 | 0.00 | 0.00 | 0.00 | 82 | 1014.0 |
| 20260505025503 | 58 | 0 | 0.0 | 0.0 | 0.00 | 0.00 | 0.00 | 82 | 1014.0 |
| 20260505025403 | 58 | 0 | 0.0 | 0.0 | 0.00 | 0.00 | 0.00 | 81 | 1014.1 |
| 20260505025304 | 58 | 0 | 0.0 | 0.0 | 0.00 | 0.00 | 0.00 | 81 | 1014.1 |
| 20260505025203 | 58 | 0 | 0.0 | 0.0 | 0.00 | 0.00 | 0.00 | 81 | 1014.1 |
| 20260505025104 | 58 | 0 | 0.0 | 0.0 | 0.00 | 0.00 | 0.00 | 81 | 1014.1 |
| 20260505025004 | 58 | 0 | 0.0 | 0.0 | 0.00 | 0.00 | 0.00 | 81 | 1014.1 |
| 20260505024903 | 58 | 0 | 0.0 | 0.0 | 0.00 | 0.00 | 0.00 | 80 | 1014.2 |
| 20260505024803 | 58 | 0 | 0.0 | 0.0 | 0.00 | 0.00 | 0.00 | 80 | 1014.2 |
| 20260505024703 | 58 | 0 | 0.0 | 0.0 | 0.00 | 0.00 | 0.00 | 80 | 1014.1 |
| 20260505024603 | 58 | 0 | 0.0 | 0.0 | 0.00 | 0.00 | 0.00 | 80 | 1014.1 |
| 20260505024503 | 58 | 0 | 0.0 | 0.0 | 0.00 | 0.00 | 0.00 | 80 | 1014.1 |
| 20260505024403 | 58 | 0 | 0.0 | 0.0 | 0.00 | 0.00 | 0.00 | 80 | 1014.1 |
| 20260505024303 | 58 | 0 | 0.0 | 0.0 | 0.00 | 0.00 | 0.00 | 79 | 1014.1 |
| 20260505024203 | 58 | 0 | 0.0 | 0.0 | 0.00 | 0.00 | 0.00 | 79 | 1014.1 |
| 20260505024103 | 58 | 0 | 0.0 | 0.0 | 0.00 | 0.00 | 0.00 | 79 | 1014.1 |
| 20260505024003 | 58 | 0 | 0.0 | 0.0 | 0.00 | 0.00 | 0.00 | 79 | 1014.1 |
| 20260505023903 | 58 | 0 | 0.0 | 0.0 | 0.00 | 0.00 | 0.00 | 79 | 1014.2 |
| 20260505023803 | 58 | 0 | 0.0 | 0.0 | 0.00 | 0.00 | 0.00 | 79 | 1014.0 |
| 20260505023703 | 58 | 0 | 0.0 | 0.0 | 0.00 | 0.00 | 0.00 | 79 | 1014.0 |
| 20260505023603 | 58 | 0 | 0.0 | 0.0 | 0.00 | 0.00 | 0.00 | 79 | 1014.1 |
| 20260505023503 | 58 | 0 | 0.0 | 0.0 | 0.00 | 0.00 | 0.00 | 79 | 1014.1 |
| 20260505023404 | 58 | 0 | 0.0 | 0.0 | 0.00 | 0.00 | 0.00 | 78 | 1014.1 |
| 20260505023304 | 58 | 0 | 0.0 | 0.0 | 0.00 | 0.00 | 0.00 | 78 | 1014.1 |
| 20260505023204 | 58 | 0 | 0.0 | 0.0 | 0.00 | 0.00 | 0.00 | 78 | 1014.1 |
| 20260505023104 | 58 | 0 | 0.0 | 0.0 | 0.00 | 0.00 | 0.00 | 78 | 1014.1 |
| 20260505023004 | 58 | 0 | 0.0 | 0.0 | 0.00 | 0.00 | 0.00 | 78 | 1014.1 |
| 20260505022904 | 58 | 0 | 0.0 | 0.0 | 0.00 | 0.00 | 0.00 | 78 | 1014.1 |
| 20260505022804 | 58 | 0 | 0.0 | 0.0 | 0.00 | 0.00 | 0.00 | 78 | 1014.2 |
| 20260505022704 | 58 | 0 | 0.0 | 0.0 | 0.00 | 0.00 | 0.00 | 78 | 1014.2 |
| 20260505022604 | 58 | 0 | 0.0 | 0.0 | 0.00 | 0.00 | 0.00 | 78 | 1014.2 |
| 20260505022504 | 58 | 0 | 0.0 | 0.0 | 0.00 | 0.00 | 0.00 | 78 | 1014.2 |
| 20260505022404 | 58 | 0 | 0.0 | 0.0 | 0.00 | 0.00 | 0.00 | 78 | 1014.2 |
| 20260505022304 | 58 | 0 | 0.0 | 0.0 | 0.00 | 0.00 | 0.00 | 78 | 1014.2 |
| 20260505022204 | 58 | 0 | 0.0 | 0.0 | 0.00 | 0.00 | 0.00 | 78 | 1014.2 |
| 20260505022104 | 58 | 0 | 0.0 | 0.0 | 0.00 | 0.00 | 0.00 | 78 | 1014.2 |
| 20260505022004 | 58 | 0 | 0.0 | 0.0 | 0.00 | 0.00 | 0.00 | 78 | 1014.2 |
| 20260505021904 | 58 | 0 | 0.0 | 0.0 | 0.00 | 0.00 | 0.00 | 78 | 1014.2 |
| 20260505021804 | 58 | 0 | 0.0 | 0.0 | 0.00 | 0.00 | 0.00 | 78 | 1014.2 |
| 20260505021704 | 58 | 0 | 0.0 | 0.0 | 0.00 | 0.00 | 0.00 | 79 | 1014.2 |
| 20260505021604 | 58 | 0 | 0.0 | 0.0 | 0.00 | 0.00 | 0.00 | 79 | 1014.2 |
| 20260505021504 | 58 | 0 | 0.0 | 0.0 | 0.00 | 0.00 | 0.00 | 79 | 1014.3 |
| 20260505021404 | 58 | 0 | 0.0 | 0.0 | 0.00 | 0.00 | 0.00 | 79 | 1014.3 |
| 20260505021303 | 58 | 0 | 0.0 | 0.0 | 0.00 | 0.00 | 0.00 | 79 | 1014.2 |
| 20260505021203 | 58 | 0 | 0.0 | 0.0 | 0.00 | 0.00 | 0.00 | 78 | 1014.2 |
| 20260505021103 | 58 | 0 | 0.0 | 0.0 | 0.00 | 0.00 | 0.00 | 78 | 1014.3 |
| 20260505021004 | 58 | 0 | 0.0 | 0.0 | 0.00 | 0.00 | 0.00 | 78 | 1014.3 |
| 20260505020903 | 58 | 0 | 0.0 | 0.0 | 0.00 | 0.00 | 0.00 | 78 | 1014.3 |
| 20260505020803 | 58 | 0 | 0.0 | 0.0 | 0.00 | 0.00 | 0.00 | 78 | 1014.4 |
| 20260505020703 | 58 | 0 | 0.0 | 0.0 | 0.00 | 0.00 | 0.00 | 78 | 1014.4 |
| 20260505020603 | 58 | 0 | 0.0 | 0.0 | 0.00 | 0.00 | 0.00 | 78 | 1014.3 |
| 20260505020503 | 58 | 0 | 0.0 | 0.0 | 0.00 | 0.00 | 0.00 | 78 | 1014.4 |
| 20260505020403 | 58 | 0 | 0.0 | 0.0 | 0.00 | 0.00 | 0.00 | 78 | 1014.4 |
| 20260505020303 | 58 | 0 | 0.0 | 0.0 | 0.00 | 0.00 | 0.00 | 78 | 1014.3 |
| 20260505020203 | 58 | 0 | 0.0 | 0.0 | 0.00 | 0.00 | 0.00 | 78 | 1014.4 |
| 20260505020103 | 58 | 0 | 0.0 | 0.0 | 0.00 | 0.00 | 0.00 | 78 | 1014.4 |
| 20260505020004 | 58 | 0 | 0.0 | 0.0 | 0.00 | 0.00 | 0.00 | 78 | 1014.4 |
| 20260505015903 | 58 | 0 | 0.0 | 0.0 | 0.00 | 0.00 | 0.00 | 77 | 1014.4 |
| 20260505015803 | 58 | 0 | 0.0 | 0.0 | 0.00 | 0.00 | 0.00 | 77 | 1014.4 |
| 20260505015703 | 58 | 0 | 0.0 | 0.0 | 0.00 | 0.00 | 0.00 | 78 | 1014.4 |
| 20260505015603 | 58 | 0 | 0.0 | 0.0 | 0.00 | 0.00 | 0.00 | 77 | 1014.4 |
| 20260505015503 | 58 | 0 | 0.0 | 0.0 | 0.00 | 0.00 | 0.00 | 77 | 1014.4 |
| 20260505015403 | 58 | 0 | 0.0 | 0.0 | 0.00 | 0.00 | 0.00 | 77 | 1014.4 |
| 20260505015303 | 58 | 0 | 0.0 | 0.0 | 0.00 | 0.00 | 0.00 | 77 | 1014.4 |
| 20260505015203 | 59 | 0 | 0.0 | 0.0 | 0.00 | 0.00 | 0.00 | 77 | 1014.4 |
| 20260505015103 | 59 | 0 | 0.0 | 0.0 | 0.00 | 0.00 | 0.00 | 77 | 1014.4 |
| 20260505015003 | 59 | 0 | 0.0 | 0.0 | 0.00 | 0.00 | 0.00 | 77 | 1014.5 |
| 20260505014903 | 59 | 0 | 0.0 | 0.0 | 0.00 | 0.00 | 0.00 | 77 | 1014.5 |
| 20260505014803 | 59 | 0 | 0.0 | 0.0 | 0.00 | 0.00 | 0.00 | 76 | 1014.5 |
| 20260505014703 | 59 | 0 | 0.0 | 0.0 | 0.00 | 0.00 | 0.00 | 76 | 1014.5 |
| 20260505014603 | 59 | 0 | 0.0 | 0.0 | 0.00 | 0.00 | 0.00 | 76 | 1014.5 |
| 20260505014403 | 59 | 0 | 0.0 | 0.0 | 0.00 | 0.00 | 0.00 | 76 | 1014.5 |
| 20260505014303 | 59 | 0 | 0.0 | 0.0 | 0.00 | 0.00 | 0.00 | 76 | 1014.5 |
| 20260505014203 | 59 | 0 | 0.0 | 0.0 | 0.00 | 0.00 | 0.00 | 76 | 1014.5 |
| 20260505014103 | 59 | 0 | 0.0 | 0.0 | 0.00 | 0.00 | 0.00 | 76 | 1014.5 |
| 20260505014003 | 59 | 0 | 0.0 | 0.0 | 0.00 | 0.00 | 0.00 | 76 | 1014.5 |
| 20260505013903 | 59 | 0 | 0.0 | 0.0 | 0.00 | 0.00 | 0.00 | 76 | 1014.5 |
| 20260505013804 | 59 | 0 | 0.0 | 0.0 | 0.00 | 0.00 | 0.00 | 76 | 1014.5 |
| 20260505013704 | 59 | 0 | 0.0 | 0.0 | 0.00 | 0.00 | 0.00 | 76 | 1014.4 |
| 20260505013604 | 59 | 0 | 0.0 | 0.0 | 0.00 | 0.00 | 0.00 | 76 | 1014.4 |
| 20260505013504 | 59 | 0 | 0.0 | 0.0 | 0.00 | 0.00 | 0.00 | 76 | 1014.5 |
| 20260505013404 | 59 | 0 | 0.0 | 0.0 | 0.00 | 0.00 | 0.00 | 76 | 1014.6 |
| 20260505013304 | 59 | 0 | 0.0 | 0.0 | 0.00 | 0.00 | 0.00 | 76 | 1014.6 |
| 20260505013204 | 59 | 0 | 0.0 | 0.0 | 0.00 | 0.00 | 0.00 | 76 | 1014.6 |
| 20260505013104 | 59 | 0 | 0.0 | 0.0 | 0.00 | 0.00 | 0.00 | 76 | 1014.6 |
| 20260505013004 | 59 | 0 | 0.0 | 0.0 | 0.00 | 0.00 | 0.00 | 76 | 1014.5 |
| 20260505012904 | 59 | 0 | 0.0 | 0.0 | 0.00 | 0.00 | 0.00 | 76 | 1014.6 |
| 20260505012804 | 59 | 0 | 0.0 | 0.0 | 0.00 | 0.00 | 0.00 | 76 | 1014.6 |
| 20260505012704 | 59 | 0 | 0.0 | 0.0 | 0.00 | 0.00 | 0.00 | 76 | 1014.6 |
| 20260505012604 | 59 | 0 | 0.0 | 0.0 | 0.00 | 0.00 | 0.00 | 76 | 1014.6 |
| 20260505012504 | 59 | 0 | 0.0 | 0.0 | 0.00 | 0.00 | 0.00 | 76 | 1014.6 |
| 20260505012404 | 59 | 0 | 0.0 | 0.0 | 0.00 | 0.00 | 0.00 | 76 | 1014.7 |
| 20260505012304 | 59 | 280 | 0.0 | 2.0 | 0.00 | 0.00 | 0.00 | 76 | 1014.7 |
| 20260505012204 | 59 | 280 | 0.0 | 2.0 | 0.00 | 0.00 | 0.00 | 76 | 1014.7 |
| 20260505012104 | 59 | 280 | 0.0 | 2.0 | 0.00 | 0.00 | 0.00 | 76 | 1014.6 |
| 20260505012004 | 59 | 279 | 0.0 | 2.0 | 0.00 | 0.00 | 0.00 | 76 | 1014.6 |
| 20260505011903 | 59 | 279 | 0.0 | 2.0 | 0.00 | 0.00 | 0.00 | 76 | 1014.7 |
| 20260505011804 | 58 | 279 | 0.0 | 2.0 | 0.00 | 0.00 | 0.00 | 76 | 1014.7 |
| 20260505011703 | 59 | 279 | 0.0 | 2.0 | 0.00 | 0.00 | 0.00 | 76 | 1014.6 |
| 20260505011603 | 58 | 280 | 0.0 | 2.0 | 0.00 | 0.00 | 0.00 | 77 | 1014.7 |
| 20260505011504 | 59 | 280 | 0.0 | 2.0 | 0.00 | 0.00 | 0.00 | 76 | 1014.7 |
| 20260505011403 | 59 | 281 | 0.0 | 2.0 | 0.00 | 0.00 | 0.00 | 76 | 1014.7 |
| 20260505011303 | 59 | 281 | 0.0 | 2.0 | 0.00 | 0.00 | 0.00 | 77 | 1014.7 |
| 20260505011203 | 59 | 281 | 0.0 | 2.0 | 0.00 | 0.00 | 0.00 | 76 | 1014.7 |
| 20260505011103 | 59 | 281 | 0.0 | 2.0 | 0.00 | 0.00 | 0.00 | 76 | 1014.8 |
| 20260505011004 | 59 | 281 | 0.0 | 4.0 | 0.00 | 0.00 | 0.00 | 76 | 1014.8 |
| 20260505010903 | 59 | 281 | 0.0 | 4.0 | 0.00 | 0.00 | 0.00 | 76 | 1014.8 |
| 20260505010803 | 59 | 281 | 0.0 | 4.0 | 0.00 | 0.00 | 0.00 | 76 | 1014.8 |
| 20260505010703 | 59 | 281 | 1.0 | 4.0 | 0.00 | 0.00 | 0.00 | 76 | 1014.8 |
| 20260505010603 | 59 | 281 | 1.0 | 4.0 | 0.00 | 0.00 | 0.00 | 76 | 1014.9 |
| 20260505010503 | 59 | 281 | 1.0 | 4.0 | 0.00 | 0.00 | 0.00 | 76 | 1014.9 |
| 20260505010403 | 59 | 281 | 1.0 | 4.0 | 0.00 | 0.00 | 0.00 | 76 | 1014.9 |
| 20260505010303 | 59 | 281 | 0.0 | 4.0 | 0.00 | 0.00 | 0.00 | 76 | 1014.9 |
| 20260505010203 | 59 | 281 | 0.0 | 4.0 | 0.00 | 0.00 | 0.00 | 75 | 1014.9 |
| 20260505010103 | 59 | 281 | 0.0 | 4.0 | 0.00 | 0.00 | 0.00 | 75 | 1015.0 |
| 20260505010004 | 59 | 280 | 0.0 | 3.0 | 0.00 | 0.00 | 0.00 | 75 | 1015.0 |
| 20260505005903 | 59 | 279 | 0.0 | 3.0 | 0.00 | 0.00 | 0.00 | 75 | 1015.1 |
| 20260505005803 | 59 | 279 | 0.0 | 3.0 | 0.00 | 0.00 | 0.00 | 75 | 1015.1 |
| 20260505005703 | 59 | 279 | 0.0 | 3.0 | 0.00 | 0.00 | 0.00 | 75 | 1015.1 |
| 20260505005603 | 59 | 278 | 0.0 | 3.0 | 0.00 | 0.00 | 0.00 | 75 | 1015.1 |
| 20260505005503 | 59 | 279 | 0.0 | 3.0 | 0.00 | 0.00 | 0.00 | 75 | 1015.2 |
| 20260505005403 | 59 | 278 | 0.0 | 3.0 | 0.00 | 0.00 | 0.00 | 75 | 1015.2 |
| 20260505005304 | 59 | 277 | 1.0 | 5.0 | 0.00 | 0.00 | 0.00 | 75 | 1015.3 |
| 20260505005203 | 59 | 278 | 1.0 | 5.0 | 0.00 | 0.00 | 0.00 | 75 | 1015.3 |
| 20260505005103 | 59 | 278 | 1.0 | 5.0 | 0.00 | 0.00 | 0.00 | 75 | 1015.3 |
| 20260505005004 | 59 | 278 | 1.0 | 5.0 | 0.00 | 0.00 | 0.00 | 75 | 1015.4 |
| 20260505004903 | 59 | 278 | 1.0 | 5.0 | 0.00 | 0.00 | 0.00 | 75 | 1015.4 |
| 20260505004803 | 59 | 278 | 1.0 | 5.0 | 0.00 | 0.00 | 0.00 | 75 | 1015.4 |
| 20260505004703 | 59 | 278 | 1.0 | 5.0 | 0.00 | 0.00 | 0.00 | 74 | 1015.4 |
| 20260505004603 | 59 | 278 | 1.0 | 5.0 | 0.00 | 0.00 | 0.00 | 75 | 1015.4 |
| 20260505004503 | 59 | 278 | 1.0 | 5.0 | 0.00 | 0.00 | 0.00 | 74 | 1015.5 |
| 20260505004403 | 59 | 278 | 1.0 | 5.0 | 0.00 | 0.00 | 0.00 | 74 | 1015.5 |
| 20260505004303 | 59 | 279 | 1.0 | 5.0 | 0.00 | 0.00 | 0.00 | 75 | 1015.5 |
| 20260505004203 | 59 | 278 | 1.0 | 5.0 | 0.00 | 0.00 | 0.00 | 75 | 1015.5 |
| 20260505004103 | 59 | 278 | 1.0 | 5.0 | 0.00 | 0.00 | 0.00 | 75 | 1015.5 |
| 20260505004007 | 59 | 279 | 1.0 | 5.0 | 0.00 | 0.00 | 0.00 | 75 | 1015.6 |
| 20260505003904 | 59 | 280 | 1.0 | 5.0 | 0.00 | 0.00 | 0.00 | 75 | 1015.6 |
| 20260505003804 | 59 | 279 | 1.0 | 5.0 | 0.00 | 0.00 | 0.00 | 74 | 1015.6 |
| 20260505003503 | 59 | 278 | 2.0 | 5.0 | 0.00 | 0.00 | 0.00 | 74 | 1015.7 |
| 20260505003403 | 59 | 279 | 2.0 | 5.0 | 0.00 | 0.00 | 0.00 | 74 | 1015.7 |
| 20260505003303 | 59 | 278 | 2.0 | 6.0 | 0.00 | 0.00 | 0.00 | 75 | 1015.7 |
| 20260505003204 | 59 | 280 | 2.0 | 6.0 | 0.00 | 0.00 | 0.00 | 75 | 1015.7 |
| 20260505003104 | 59 | 280 | 2.0 | 6.0 | 0.00 | 0.00 | 0.00 | 75 | 1015.7 |
| 20260505003004 | 59 | 282 | 2.0 | 6.0 | 0.00 | 0.00 | 0.00 | 75 | 1015.7 |
| 20260505002904 | 59 | 285 | 2.0 | 6.0 | 0.00 | 0.00 | 0.00 | 75 | 1015.8 |
| 20260505002804 | 59 | 284 | 2.0 | 6.0 | 0.00 | 0.00 | 0.00 | 75 | 1015.8 |
| 20260505002704 | 59 | 285 | 2.0 | 6.0 | 0.00 | 0.00 | 0.00 | 75 | 1015.8 |
| 20260505002604 | 59 | 286 | 2.0 | 6.0 | 0.00 | 0.00 | 0.00 | 75 | 1015.8 |
| 20260505002504 | 59 | 287 | 2.0 | 6.0 | 0.00 | 0.00 | 0.00 | 75 | 1015.8 |
| 20260505002403 | 59 | 287 | 2.0 | 6.0 | 0.00 | 0.00 | 0.00 | 75 | 1015.9 |
| 20260505002304 | 59 | 289 | 1.0 | 6.0 | 0.00 | 0.00 | 0.00 | 75 | 1015.9 |
| 20260505002204 | 59 | 290 | 1.0 | 6.0 | 0.00 | 0.00 | 0.00 | 76 | 1015.9 |
| 20260505002104 | 59 | 291 | 1.0 | 6.0 | 0.00 | 0.00 | 0.00 | 76 | 1016.0 |
| 20260505002004 | 59 | 287 | 1.0 | 6.0 | 0.00 | 0.00 | 0.00 | 76 | 1016.0 |
| 20260505001904 | 59 | 277 | 1.0 | 5.0 | 0.00 | 0.00 | 0.00 | 76 | 1016.0 |
| 20260505001804 | 59 | 278 | 0.0 | 3.0 | 0.00 | 0.00 | 0.00 | 76 | 1016.0 |
| 20260505001704 | 59 | 278 | 0.0 | 3.0 | 0.00 | 0.00 | 0.00 | 76 | 1016.0 |
| 20260505001604 | 59 | 278 | 0.0 | 3.0 | 0.00 | 0.00 | 0.00 | 76 | 1016.0 |
| 20260505001504 | 59 | 279 | 0.0 | 2.0 | 0.00 | 0.00 | 0.00 | 76 | 1016.0 |
| 20260505001403 | 59 | 279 | 0.0 | 2.0 | 0.00 | 0.00 | 0.00 | 76 | 1016.0 |
| 20260505001304 | 59 | 278 | 0.0 | 3.0 | 0.00 | 0.00 | 0.00 | 76 | 1016.0 |
| 20260505001204 | 59 | 276 | 0.0 | 4.0 | 0.00 | 0.00 | 0.00 | 76 | 1016.0 |
| 20260505001103 | 59 | 277 | 1.0 | 4.0 | 0.00 | 0.00 | 0.00 | 76 | 1016.1 |
| 20260505001004 | 59 | 277 | 1.0 | 4.0 | 0.00 | 0.00 | 0.00 | 76 | 1016.0 |
| 20260505000903 | 59 | 277 | 1.0 | 4.0 | 0.00 | 0.00 | 0.00 | 76 | 1016.0 |
| 20260505000803 | 60 | 283 | 1.0 | 4.0 | 0.00 | 0.00 | 0.00 | 76 | 1016.0 |
| 20260505000703 | 59 | 283 | 1.0 | 4.0 | 0.00 | 0.00 | 0.00 | 76 | 1016.0 |
| 20260505000603 | 60 | 283 | 1.0 | 4.0 | 0.00 | 0.00 | 0.00 | 75 | 1016.0 |
| 20260505000503 | 59 | 281 | 1.0 | 4.0 | 0.00 | 0.00 | 0.00 | 76 | 1016.1 |
| 20260505000405 | 59 | 281 | 1.0 | 4.0 | 0.00 | 0.00 | 0.00 | 75 | 1016.1 |
| 20260505000303 | 59 | 282 | 1.0 | 4.0 | 0.00 | 0.00 | 0.00 | 75 | 1016.1 |
| 20260505000204 | 60 | 283 | 1.0 | 4.0 | 0.00 | 0.00 | 0.00 | 76 | 1016.2 |
| 20260505000103 | 60 | 284 | 1.0 | 4.0 | 0.00 | 0.00 | 0.00 | 76 | 1016.2 |
| 20260505000004 | 60 | 285 | 1.0 | 4.0 | 0.00 | 0.00 | 0.00 | 76 | 1016.2 |
| 20260504235903 | 60 | 286 | 1.0 | 4.0 | 0.00 | 0.00 | 0.00 | 75 | 1016.2 |
| 20260504235803 | 60 | 282 | 1.0 | 4.0 | 0.00 | 0.00 | 0.00 | 75 | 1016.1 |
| 20260504235703 | 60 | 282 | 1.0 | 4.0 | 0.00 | 0.00 | 0.00 | 76 | 1016.2 |
| 20260504235603 | 60 | 281 | 1.0 | 4.0 | 0.00 | 0.00 | 0.00 | 75 | 1016.2 |
| 20260504235503 | 60 | 286 | 0.0 | 4.0 | 0.00 | 0.00 | 0.00 | 76 | 1016.3 |
| 20260504235403 | 60 | 289 | 0.0 | 4.0 | 0.00 | 0.00 | 0.00 | 76 | 1016.3 |
| 20260504235304 | 60 | 285 | 0.0 | 3.0 | 0.00 | 0.00 | 0.00 | 76 | 1016.2 |
| 20260504235203 | 60 | 286 | 0.0 | 3.0 | 0.00 | 0.00 | 0.00 | 76 | 1016.3 |
| 20260504235103 | 60 | 286 | 0.0 | 3.0 | 0.00 | 0.00 | 0.00 | 76 | 1016.3 |
| 20260504235003 | 60 | 286 | 0.0 | 3.0 | 0.00 | 0.00 | 0.00 | 76 | 1016.2 |
| 20260504234903 | 60 | 277 | 0.0 | 2.0 | 0.00 | 0.00 | 0.00 | 76 | 1016.3 |
| 20260504234803 | 60 | 278 | 0.0 | 2.0 | 0.00 | 0.00 | 0.00 | 76 | 1016.3 |
| 20260504234703 | 60 | 278 | 0.0 | 2.0 | 0.00 | 0.00 | 0.00 | 76 | 1016.3 |
| 20260504234603 | 60 | 279 | 0.0 | 4.0 | 0.00 | 0.00 | 0.00 | 76 | 1016.3 |
| 20260504234503 | 60 | 279 | 0.0 | 4.0 | 0.00 | 0.00 | 0.00 | 76 | 1016.2 |
| 20260504234403 | 60 | 279 | 0.0 | 4.0 | 0.00 | 0.00 | 0.00 | 76 | 1016.4 |
| 20260504234303 | 60 | 278 | 0.0 | 4.0 | 0.00 | 0.00 | 0.00 | 76 | 1016.4 |
| 20260504234203 | 60 | 278 | 0.0 | 4.0 | 0.00 | 0.00 | 0.00 | 76 | 1016.3 |
| 20260504234103 | 60 | 278 | 0.0 | 4.0 | 0.00 | 0.00 | 0.00 | 76 | 1016.3 |
| 20260504234003 | 60 | 278 | 0.0 | 4.0 | 0.00 | 0.00 | 0.00 | 76 | 1016.4 |
| 20260504233903 | 60 | 278 | 0.0 | 4.0 | 0.00 | 0.00 | 0.00 | 76 | 1016.4 |
| 20260504233803 | 60 | 277 | 0.0 | 4.0 | 0.00 | 0.00 | 0.00 | 76 | 1016.4 |
| 20260504233703 | 60 | 277 | 0.0 | 4.0 | 0.00 | 0.00 | 0.00 | 76 | 1016.5 |
| 20260504233603 | 60 | 276 | 0.0 | 4.0 | 0.00 | 0.00 | 0.00 | 76 | 1016.5 |
| 20260504233504 | 60 | 275 | 0.0 | 4.0 | 0.00 | 0.00 | 0.00 | 76 | 1016.4 |
| 20260504233404 | 60 | 276 | 0.0 | 4.0 | 0.00 | 0.00 | 0.00 | 76 | 1016.5 |
| 20260504233304 | 60 | 275 | 0.0 | 2.0 | 0.00 | 0.00 | 0.00 | 77 | 1016.5 |
| 20260504233204 | 60 | 275 | 0.0 | 2.0 | 0.00 | 0.00 | 0.00 | 77 | 1016.5 |
| 20260504233104 | 60 | 275 | 0.0 | 2.0 | 0.00 | 0.00 | 0.00 | 76 | 1016.6 |
| 20260504233004 | 60 | 274 | 0.0 | 2.0 | 0.00 | 0.00 | 0.00 | 76 | 1016.6 |
| 20260504232904 | 60 | 275 | 0.0 | 2.0 | 0.00 | 0.00 | 0.00 | 76 | 1016.7 |
| 20260504232804 | 60 | 275 | 0.0 | 2.0 | 0.00 | 0.00 | 0.00 | 76 | 1016.7 |
| 20260504232704 | 60 | 277 | 0.0 | 3.0 | 0.00 | 0.00 | 0.00 | 76 | 1016.7 |
| 20260504232604 | 60 | 277 | 0.0 | 3.0 | 0.00 | 0.00 | 0.00 | 76 | 1016.7 |
| 20260504232504 | 60 | 277 | 0.0 | 3.0 | 0.00 | 0.00 | 0.00 | 76 | 1016.7 |
| 20260504232404 | 60 | 284 | 1.0 | 4.0 | 0.00 | 0.00 | 0.00 | 76 | 1016.7 |
| 20260504232304 | 60 | 285 | 1.0 | 4.0 | 0.00 | 0.00 | 0.00 | 76 | 1016.7 |
| 20260504232204 | 60 | 283 | 1.0 | 4.0 | 0.00 | 0.00 | 0.00 | 75 | 1016.7 |
| 20260504232104 | 60 | 282 | 1.0 | 4.0 | 0.00 | 0.00 | 0.00 | 75 | 1016.7 |
| 20260504232004 | 60 | 283 | 1.0 | 4.0 | 0.00 | 0.00 | 0.00 | 75 | 1016.7 |
| 20260504231904 | 60 | 284 | 1.0 | 4.0 | 0.00 | 0.00 | 0.00 | 75 | 1016.7 |
| 20260504231804 | 60 | 284 | 1.0 | 4.0 | 0.00 | 0.00 | 0.00 | 75 | 1016.7 |
| 20260504231704 | 60 | 285 | 1.0 | 4.0 | 0.00 | 0.00 | 0.00 | 75 | 1016.8 |
| 20260504231604 | 60 | 286 | 0.0 | 4.0 | 0.00 | 0.00 | 0.00 | 75 | 1016.8 |
| 20260504231504 | 60 | 288 | 0.0 | 4.0 | 0.00 | 0.00 | 0.00 | 75 | 1016.8 |
| 20260504231403 | 60 | 278 | 0.0 | 3.0 | 0.00 | 0.00 | 0.00 | 75 | 1016.7 |
| 20260504231303 | 60 | 278 | 0.0 | 3.0 | 0.00 | 0.00 | 0.00 | 75 | 1016.8 |
| 20260504231203 | 60 | 281 | 0.0 | 3.0 | 0.00 | 0.00 | 0.00 | 75 | 1016.8 |
| 20260504231103 | 60 | 295 | 0.0 | 3.0 | 0.00 | 0.00 | 0.00 | 75 | 1016.7 |
| 20260504231004 | 60 | 277 | 0.0 | 1.0 | 0.00 | 0.00 | 0.00 | 75 | 1016.7 |
| 20260504230903 | 60 | 277 | 0.0 | 1.0 | 0.00 | 0.00 | 0.00 | 75 | 1016.7 |
| 20260504230803 | 60 | 277 | 0.0 | 1.0 | 0.00 | 0.00 | 0.00 | 75 | 1016.7 |
| 20260504230703 | 60 | 277 | 0.0 | 1.0 | 0.00 | 0.00 | 0.00 | 75 | 1016.7 |
| 20260504230603 | 60 | 276 | 0.0 | 2.0 | 0.00 | 0.00 | 0.00 | 75 | 1016.7 |
| 20260504230503 | 60 | 276 | 0.0 | 2.0 | 0.00 | 0.00 | 0.00 | 76 | 1016.7 |
| 20260504230403 | 60 | 276 | 0.0 | 2.0 | 0.00 | 0.00 | 0.00 | 76 | 1016.7 |
| 20260504230303 | 60 | 276 | 0.0 | 2.0 | 0.00 | 0.00 | 0.00 | 76 | 1016.8 |
| 20260504230203 | 60 | 276 | 0.0 | 2.0 | 0.00 | 0.00 | 0.00 | 76 | 1016.8 |
| 20260504230103 | 60 | 318 | 0.0 | 3.0 | 0.00 | 0.00 | 0.00 | 76 | 1016.8 |
| 20260504230004 | 60 | 315 | 0.0 | 3.0 | 0.00 | 0.00 | 0.00 | 76 | 1016.8 |
| 20260504225903 | 60 | 303 | 0.0 | 3.0 | 0.00 | 0.00 | 0.00 | 76 | 1016.7 |
| 20260504225804 | 60 | 303 | 0.0 | 3.0 | 0.00 | 0.00 | 0.00 | 76 | 1016.8 |
| 20260504225703 | 60 | 293 | 0.0 | 3.0 | 0.00 | 0.00 | 0.00 | 76 | 1016.8 |
| 20260504225603 | 60 | 289 | 0.0 | 3.0 | 0.00 | 0.00 | 0.00 | 76 | 1016.8 |
| 20260504225503 | 60 | 289 | 0.0 | 3.0 | 0.00 | 0.00 | 0.00 | 76 | 1016.8 |
| 20260504225403 | 60 | 289 | 0.0 | 3.0 | 0.00 | 0.00 | 0.00 | 76 | 1016.8 |
| 20260504225304 | 60 | 286 | 0.0 | 3.0 | 0.00 | 0.00 | 0.00 | 76 | 1016.8 |
| 20260504225203 | 60 | 286 | 0.0 | 3.0 | 0.00 | 0.00 | 0.00 | 76 | 1016.8 |
| 20260504225103 | 60 | 274 | 0.0 | 3.0 | 0.00 | 0.00 | 0.00 | 76 | 1016.8 |
| 20260504225003 | 60 | 274 | 0.0 | 3.0 | 0.00 | 0.00 | 0.00 | 76 | 1016.8 |
| 20260504224903 | 60 | 274 | 0.0 | 3.0 | 0.00 | 0.00 | 0.00 | 76 | 1016.8 |
| 20260504224803 | 60 | 274 | 0.0 | 3.0 | 0.00 | 0.00 | 0.00 | 76 | 1016.9 |
| 20260504224703 | 60 | 274 | 0.0 | 4.0 | 0.00 | 0.00 | 0.00 | 76 | 1016.9 |
| 20260504224603 | 60 | 275 | 0.0 | 4.0 | 0.00 | 0.00 | 0.00 | 76 | 1016.9 |
| 20260504224503 | 60 | 275 | 0.0 | 4.0 | 0.00 | 0.00 | 0.00 | 76 | 1016.9 |
| 20260504224403 | 60 | 279 | 0.0 | 4.0 | 0.00 | 0.00 | 0.00 | 76 | 1016.9 |
| 20260504224303 | 60 | 279 | 0.0 | 4.0 | 0.00 | 0.00 | 0.00 | 76 | 1016.8 |
| 20260504224203 | 60 | 279 | 0.0 | 4.0 | 0.00 | 0.00 | 0.00 | 76 | 1016.9 |
| 20260504224103 | 60 | 279 | 0.0 | 4.0 | 0.00 | 0.00 | 0.00 | 76 | 1016.9 |
| 20260504224003 | 60 | 280 | 0.0 | 4.0 | 0.00 | 0.00 | 0.00 | 76 | 1016.9 |
| 20260504223903 | 60 | 280 | 0.0 | 4.0 | 0.00 | 0.00 | 0.00 | 76 | 1016.9 |
| 20260504223803 | 60 | 281 | 0.0 | 4.0 | 0.00 | 0.00 | 0.00 | 76 | 1016.9 |
| 20260504223703 | 60 | 283 | 0.0 | 3.0 | 0.00 | 0.00 | 0.00 | 76 | 1017.0 |
| 20260504223603 | 60 | 296 | 0.0 | 2.0 | 0.00 | 0.00 | 0.00 | 76 | 1017.0 |
| 20260504223503 | 60 | 293 | 0.0 | 2.0 | 0.00 | 0.00 | 0.00 | 76 | 1017.0 |
| 20260504223403 | 60 | 280 | 0.0 | 2.0 | 0.00 | 0.00 | 0.00 | 76 | 1017.0 |
| 20260504223303 | 60 | 281 | 0.0 | 2.0 | 0.00 | 0.00 | 0.00 | 76 | 1017.1 |
| 20260504223203 | 60 | 282 | 0.0 | 4.0 | 0.00 | 0.00 | 0.00 | 75 | 1017.1 |
| 20260504223103 | 60 | 283 | 0.0 | 4.0 | 0.00 | 0.00 | 0.00 | 75 | 1017.1 |
| 20260504223003 | 60 | 283 | 0.0 | 4.0 | 0.00 | 0.00 | 0.00 | 76 | 1017.1 |
| 20260504222903 | 60 | 284 | 0.0 | 4.0 | 0.00 | 0.00 | 0.00 | 76 | 1017.1 |
| 20260504222804 | 60 | 288 | 0.0 | 4.0 | 0.00 | 0.00 | 0.00 | 76 | 1017.1 |
| 20260504222704 | 60 | 298 | 1.0 | 4.0 | 0.00 | 0.00 | 0.00 | 76 | 1017.1 |
| 20260504222604 | 60 | 295 | 1.0 | 4.0 | 0.00 | 0.00 | 0.00 | 75 | 1017.1 |
| 20260504222504 | 60 | 296 | 1.0 | 4.0 | 0.00 | 0.00 | 0.00 | 75 | 1017.1 |
| 20260504222404 | 60 | 298 | 1.0 | 4.0 | 0.00 | 0.00 | 0.00 | 75 | 1017.1 |
| 20260504222305 | 60 | 310 | 1.0 | 4.0 | 0.00 | 0.00 | 0.00 | 75 | 1017.1 |
| 20260504222204 | 60 | 312 | 1.0 | 5.0 | 0.00 | 0.00 | 0.00 | 75 | 1017.1 |
| 20260504222104 | 60 | 320 | 1.0 | 6.0 | 0.00 | 0.00 | 0.00 | 75 | 1017.1 |
| 20260504222004 | 60 | 318 | 1.0 | 6.0 | 0.00 | 0.00 | 0.00 | 75 | 1017.1 |
| 20260504221904 | 60 | 316 | 1.0 | 6.0 | 0.00 | 0.00 | 0.00 | 75 | 1017.1 |
| 20260504221804 | 60 | 315 | 1.0 | 6.0 | 0.00 | 0.00 | 0.00 | 75 | 1017.1 |
| 20260504221704 | 60 | 312 | 1.0 | 6.0 | 0.00 | 0.00 | 0.00 | 75 | 1017.1 |
| 20260504221604 | 61 | 312 | 1.0 | 6.0 | 0.00 | 0.00 | 0.00 | 75 | 1017.1 |
| 20260504221504 | 61 | 310 | 1.0 | 6.0 | 0.00 | 0.00 | 0.00 | 75 | 1017.1 |
| 20260504221404 | 61 | 308 | 1.0 | 6.0 | 0.00 | 0.00 | 0.00 | 75 | 1017.1 |
| 20260504221304 | 61 | 304 | 1.0 | 6.0 | 0.00 | 0.00 | 0.00 | 75 | 1017.1 |
| 20260504221204 | 61 | 303 | 1.0 | 6.0 | 0.00 | 0.00 | 0.00 | 75 | 1017.2 |
| 20260504221104 | 61 | 289 | 1.0 | 4.0 | 0.00 | 0.00 | 0.00 | 75 | 1017.2 |
| 20260504221004 | 61 | 287 | 1.0 | 3.0 | 0.00 | 0.00 | 0.00 | 75 | 1017.2 |
| 20260504220903 | 61 | 286 | 1.0 | 3.0 | 0.00 | 0.00 | 0.00 | 75 | 1017.2 |
| 20260504220803 | 61 | 289 | 1.0 | 3.0 | 0.00 | 0.00 | 0.00 | 75 | 1017.2 |
| 20260504220703 | 61 | 286 | 0.0 | 3.0 | 0.00 | 0.00 | 0.00 | 75 | 1017.2 |
| 20260504220603 | 61 | 290 | 0.0 | 3.0 | 0.00 | 0.00 | 0.00 | 74 | 1017.2 |
| 20260504220503 | 61 | 292 | 0.0 | 3.0 | 0.00 | 0.00 | 0.00 | 74 | 1017.2 |
| 20260504220403 | 61 | 294 | 0.0 | 3.0 | 0.00 | 0.00 | 0.00 | 75 | 1017.3 |
| 20260504220303 | 61 | 317 | 0.0 | 4.0 | 0.00 | 0.00 | 0.00 | 74 | 1017.3 |
| 20260504220203 | 61 | 324 | 0.0 | 4.0 | 0.00 | 0.00 | 0.00 | 75 | 1017.2 |
| 20260504220103 | 61 | 324 | 0.0 | 4.0 | 0.00 | 0.00 | 0.00 | 74 | 1017.3 |
| 20260504220035 | 61 | 318 | 0.0 | 4.0 | 0.00 | 0.00 | 0.00 | 74 | 1017.3 |
| 20260504215903 | 61 | 326 | 1.0 | 4.0 | 0.00 | 0.00 | 0.00 | 74 | 1017.3 |
| 20260504215803 | 61 | 325 | 0.0 | 4.0 | 0.00 | 0.00 | 0.00 | 74 | 1017.3 |
| 20260504215703 | 61 | 318 | 1.0 | 4.0 | 0.00 | 0.00 | 0.00 | 74 | 1017.3 |
| 20260504215603 | 61 | 321 | 1.0 | 4.0 | 0.00 | 0.00 | 0.00 | 74 | 1017.4 |
| 20260504215503 | 61 | 323 | 1.0 | 4.0 | 0.00 | 0.00 | 0.00 | 74 | 1017.4 |
| 20260504215403 | 61 | 324 | 1.0 | 4.0 | 0.00 | 0.00 | 0.00 | 74 | 1017.3 |
| 20260504215304 | 61 | 314 | 0.0 | 3.0 | 0.00 | 0.00 | 0.00 | 74 | 1017.4 |
| 20260504215203 | 61 | 313 | 0.0 | 3.0 | 0.00 | 0.00 | 0.00 | 74 | 1017.4 |
| 20260504215103 | 61 | 321 | 0.0 | 3.0 | 0.00 | 0.00 | 0.00 | 74 | 1017.3 |
| 20260504215003 | 61 | 326 | 0.0 | 3.0 | 0.00 | 0.00 | 0.00 | 74 | 1017.3 |
| 20260504214903 | 61 | 313 | 0.0 | 3.0 | 0.00 | 0.00 | 0.00 | 74 | 1017.4 |
| 20260504214803 | 61 | 301 | 0.0 | 3.0 | 0.00 | 0.00 | 0.00 | 74 | 1017.4 |
| 20260504214703 | 61 | 303 | 0.0 | 3.0 | 0.00 | 0.00 | 0.00 | 74 | 1017.4 |
| 20260504214603 | 61 | 285 | 0.0 | 3.0 | 0.00 | 0.00 | 0.00 | 75 | 1017.4 |
| 20260504214503 | 61 | 285 | 0.0 | 3.0 | 0.00 | 0.00 | 0.00 | 75 | 1017.4 |
| 20260504214403 | 61 | 285 | 0.0 | 3.0 | 0.00 | 0.00 | 0.00 | 75 | 1017.4 |
| 20260504214303 | 61 | 274 | 0.0 | 3.0 | 0.00 | 0.00 | 0.00 | 75 | 1017.4 |
| 20260504214203 | 61 | 273 | 0.0 | 3.0 | 0.00 | 0.00 | 0.00 | 75 | 1017.4 |
| 20260504214103 | 61 | 273 | 0.0 | 3.0 | 0.00 | 0.00 | 0.00 | 75 | 1017.4 |
| 20260504214003 | 61 | 273 | 0.0 | 3.0 | 0.00 | 0.00 | 0.00 | 75 | 1017.4 |
| 20260504213903 | 61 | 273 | 0.0 | 3.0 | 0.00 | 0.00 | 0.00 | 75 | 1017.3 |
| 20260504213803 | 61 | 274 | 0.0 | 3.0 | 0.00 | 0.00 | 0.00 | 74 | 1017.4 |
| 20260504213703 | 61 | 274 | 0.0 | 3.0 | 0.00 | 0.00 | 0.00 | 74 | 1017.4 |
| 20260504213603 | 61 | 276 | 0.0 | 1.0 | 0.00 | 0.00 | 0.00 | 75 | 1017.4 |
| 20260504213503 | 61 | 275 | 0.0 | 1.0 | 0.00 | 0.00 | 0.00 | 74 | 1017.4 |
| 20260504213403 | 61 | 275 | 0.0 | 1.0 | 0.00 | 0.00 | 0.00 | 74 | 1017.4 |
| 20260504213303 | 61 | 275 | 0.0 | 1.0 | 0.00 | 0.00 | 0.00 | 74 | 1017.5 |
| 20260504213203 | 61 | 275 | 0.0 | 1.0 | 0.00 | 0.00 | 0.00 | 74 | 1017.5 |
| 20260504213103 | 61 | 275 | 0.0 | 1.0 | 0.00 | 0.00 | 0.00 | 74 | 1017.5 |
| 20260504213004 | 61 | 275 | 0.0 | 1.0 | 0.00 | 0.00 | 0.00 | 74 | 1017.5 |
| 20260504212904 | 62 | 275 | 0.0 | 1.0 | 0.00 | 0.00 | 0.00 | 74 | 1017.5 |
| 20260504212804 | 62 | 275 | 0.0 | 1.0 | 0.00 | 0.00 | 0.00 | 74 | 1017.5 |
| 20260504212704 | 62 | 275 | 0.0 | 1.0 | 0.00 | 0.00 | 0.00 | 74 | 1017.5 |
| 20260504212603 | 62 | 274 | 0.0 | 1.0 | 0.00 | 0.00 | 0.00 | 74 | 1017.5 |
| 20260504212504 | 62 | 0 | 0.0 | 0.0 | 0.00 | 0.00 | 0.00 | 74 | 1017.6 |
| 20260504212404 | 62 | 278 | 0.0 | 1.0 | 0.00 | 0.00 | 0.00 | 74 | 1017.6 |
| 20260504212304 | 62 | 278 | 0.0 | 1.0 | 0.00 | 0.00 | 0.00 | 74 | 1017.6 |
| 20260504212204 | 62 | 278 | 0.0 | 1.0 | 0.00 | 0.00 | 0.00 | 74 | 1017.6 |
| 20260504212104 | 62 | 278 | 0.0 | 1.0 | 0.00 | 0.00 | 0.00 | 74 | 1017.6 |
| 20260504212004 | 62 | 278 | 0.0 | 1.0 | 0.00 | 0.00 | 0.00 | 74 | 1017.6 |
| 20260504211904 | 62 | 278 | 0.0 | 1.0 | 0.00 | 0.00 | 0.00 | 74 | 1017.6 |
| 20260504211804 | 62 | 278 | 0.0 | 1.0 | 0.00 | 0.00 | 0.00 | 73 | 1017.6 |
| 20260504211704 | 62 | 278 | 0.0 | 1.0 | 0.00 | 0.00 | 0.00 | 73 | 1017.7 |
| 20260504211603 | 62 | 278 | 0.0 | 1.0 | 0.00 | 0.00 | 0.00 | 73 | 1017.7 |
| 20260504211504 | 62 | 278 | 0.0 | 1.0 | 0.00 | 0.00 | 0.00 | 73 | 1017.7 |
| 20260504211404 | 62 | 279 | 0.0 | 1.0 | 0.00 | 0.00 | 0.00 | 73 | 1017.7 |
| 20260504211304 | 62 | 279 | 0.0 | 1.0 | 0.00 | 0.00 | 0.00 | 73 | 1017.7 |
| 20260504211204 | 62 | 279 | 0.0 | 1.0 | 0.00 | 0.00 | 0.00 | 73 | 1017.7 |
| 20260504211104 | 62 | 279 | 0.0 | 1.0 | 0.00 | 0.00 | 0.00 | 73 | 1017.7 |
| 20260504211004 | 62 | 279 | 0.0 | 1.0 | 0.00 | 0.00 | 0.00 | 73 | 1017.6 |
| 20260504210904 | 62 | 279 | 0.0 | 1.0 | 0.00 | 0.00 | 0.00 | 73 | 1017.6 |
| 20260504210803 | 62 | 279 | 0.0 | 1.0 | 0.00 | 0.00 | 0.00 | 72 | 1017.7 |
| 20260504210704 | 62 | 279 | 0.0 | 1.0 | 0.00 | 0.00 | 0.00 | 72 | 1017.7 |
| 20260504210603 | 62 | 279 | 0.0 | 1.0 | 0.00 | 0.00 | 0.00 | 72 | 1017.7 |
| 20260504210503 | 62 | 279 | 0.0 | 1.0 | 0.00 | 0.00 | 0.00 | 72 | 1017.6 |
| 20260504210403 | 62 | 279 | 0.0 | 1.0 | 0.00 | 0.00 | 0.00 | 72 | 1017.7 |
| 20260504210303 | 62 | 279 | 0.0 | 1.0 | 0.00 | 0.00 | 0.00 | 72 | 1017.7 |
| 20260504210204 | 62 | 275 | 0.0 | 1.0 | 0.00 | 0.00 | 0.00 | 72 | 1017.6 |
| 20260504210004 | 62 | 275 | 0.0 | 2.0 | 0.00 | 0.00 | 0.00 | 71 | 1017.7 |
| 20260504205903 | 62 | 275 | 0.0 | 2.0 | 0.00 | 0.00 | 0.00 | 71 | 1017.6 |
| 20260504205803 | 62 | 275 | 0.0 | 2.0 | 0.00 | 0.00 | 0.00 | 71 | 1017.6 |
| 20260504205703 | 62 | 275 | 0.0 | 2.0 | 0.00 | 0.00 | 0.00 | 71 | 1017.6 |
| 20260504205603 | 62 | 275 | 0.0 | 2.0 | 0.00 | 0.00 | 0.00 | 71 | 1017.6 |
| 20260504205503 | 62 | 275 | 0.0 | 2.0 | 0.00 | 0.00 | 0.00 | 70 | 1017.6 |
| 20260504205403 | 62 | 275 | 0.0 | 2.0 | 0.00 | 0.00 | 0.00 | 70 | 1017.7 |
| 20260504205304 | 62 | 275 | 0.0 | 2.0 | 0.00 | 0.00 | 0.00 | 70 | 1017.7 |
| 20260504205203 | 62 | 275 | 0.0 | 2.0 | 0.00 | 0.00 | 0.00 | 70 | 1017.6 |
| 20260504205103 | 62 | 276 | 0.0 | 1.0 | 0.00 | 0.00 | 0.00 | 70 | 1017.6 |
| 20260504205004 | 62 | 276 | 0.0 | 1.0 | 0.00 | 0.00 | 0.00 | 70 | 1017.6 |
| 20260504204903 | 62 | 276 | 0.0 | 1.0 | 0.00 | 0.00 | 0.00 | 70 | 1017.7 |
| 20260504204803 | 62 | 276 | 0.0 | 1.0 | 0.00 | 0.00 | 0.00 | 69 | 1017.7 |
| 20260504204703 | 62 | 276 | 0.0 | 1.0 | 0.00 | 0.00 | 0.00 | 69 | 1017.7 |
| 20260504204603 | 62 | 274 | 0.0 | 2.0 | 0.00 | 0.00 | 0.00 | 69 | 1017.7 |
| 20260504204503 | 62 | 274 | 0.0 | 2.0 | 0.00 | 0.00 | 0.00 | 69 | 1017.7 |
| 20260504204403 | 62 | 274 | 0.0 | 2.0 | 0.00 | 0.00 | 0.00 | 69 | 1017.7 |
| 20260504204303 | 62 | 274 | 0.0 | 2.0 | 0.00 | 0.00 | 0.00 | 68 | 1017.7 |
| 20260504204203 | 62 | 274 | 0.0 | 2.0 | 0.00 | 0.00 | 0.00 | 68 | 1017.6 |
| 20260504204103 | 62 | 274 | 0.0 | 2.0 | 0.00 | 0.00 | 0.00 | 68 | 1017.7 |
| 20260504204003 | 62 | 274 | 0.0 | 2.0 | 0.00 | 0.00 | 0.00 | 68 | 1017.7 |
| 20260504203903 | 62 | 274 | 0.0 | 2.0 | 0.00 | 0.00 | 0.00 | 68 | 1017.7 |
| 20260504203803 | 62 | 274 | 0.0 | 2.0 | 0.00 | 0.00 | 0.00 | 68 | 1017.7 |
| 20260504203703 | 62 | 274 | 0.0 | 2.0 | 0.00 | 0.00 | 0.00 | 68 | 1017.7 |
| 20260504203603 | 62 | 274 | 0.0 | 1.0 | 0.00 | 0.00 | 0.00 | 68 | 1017.7 |
| 20260504203503 | 62 | 274 | 0.0 | 1.0 | 0.00 | 0.00 | 0.00 | 67 | 1017.7 |
| 20260504203403 | 62 | 274 | 0.0 | 1.0 | 0.00 | 0.00 | 0.00 | 67 | 1017.7 |
| 20260504203303 | 62 | 274 | 0.0 | 1.0 | 0.00 | 0.00 | 0.00 | 67 | 1017.8 |
| 20260504203203 | 62 | 274 | 0.0 | 1.0 | 0.00 | 0.00 | 0.00 | 67 | 1017.8 |
| 20260504203103 | 62 | 0 | 0.0 | 0.0 | 0.00 | 0.00 | 0.00 | 67 | 1017.8 |
| 20260504203003 | 62 | 0 | 0.0 | 0.0 | 0.00 | 0.00 | 0.00 | 67 | 1017.8 |
| 20260504202903 | 62 | 0 | 0.0 | 0.0 | 0.00 | 0.00 | 0.00 | 67 | 1017.8 |
| 20260504202803 | 62 | 0 | 0.0 | 0.0 | 0.00 | 0.00 | 0.00 | 66 | 1017.8 |
| 20260504202703 | 63 | 0 | 0.0 | 0.0 | 0.00 | 0.00 | 0.00 | 66 | 1017.8 |
| 20260504202603 | 63 | 0 | 0.0 | 0.0 | 0.00 | 0.00 | 0.00 | 66 | 1017.7 |
| 20260504202503 | 63 | 0 | 0.0 | 0.0 | 0.00 | 0.00 | 0.00 | 66 | 1017.7 |
| 20260504202404 | 63 | 0 | 0.0 | 0.0 | 0.00 | 0.00 | 0.00 | 66 | 1017.6 |
| 20260504202305 | 63 | 0 | 0.0 | 0.0 | 0.00 | 0.00 | 0.00 | 66 | 1017.7 |
| 20260504202204 | 63 | 0 | 0.0 | 0.0 | 0.00 | 0.00 | 0.00 | 66 | 1017.7 |
| 20260504202104 | 63 | 0 | 0.0 | 0.0 | 0.00 | 0.00 | 0.00 | 66 | 1017.7 |
| 20260504202004 | 63 | 0 | 0.0 | 0.0 | 0.00 | 0.00 | 0.00 | 66 | 1017.7 |
| 20260504201904 | 63 | 0 | 0.0 | 0.0 | 0.00 | 0.00 | 0.00 | 65 | 1017.7 |
| 20260504201804 | 63 | 0 | 0.0 | 0.0 | 0.00 | 0.00 | 0.00 | 66 | 1017.7 |
| 20260504201704 | 63 | 0 | 0.0 | 0.0 | 0.00 | 0.00 | 0.00 | 65 | 1017.7 |
| 20260504201604 | 63 | 0 | 0.0 | 0.0 | 0.00 | 0.00 | 0.00 | 65 | 1017.7 |
| 20260504201504 | 63 | 0 | 0.0 | 0.0 | 0.00 | 0.00 | 0.00 | 65 | 1017.6 |
| 20260504201404 | 63 | 0 | 0.0 | 0.0 | 0.00 | 0.00 | 0.00 | 65 | 1017.6 |
| 20260504201304 | 63 | 0 | 0.0 | 0.0 | 0.00 | 0.00 | 0.00 | 65 | 1017.6 |
| 20260504201203 | 63 | 0 | 0.0 | 0.0 | 0.00 | 0.00 | 0.00 | 64 | 1017.6 |
| 20260504201104 | 63 | 0 | 0.0 | 0.0 | 0.00 | 0.00 | 0.00 | 64 | 1017.7 |
| 20260504201004 | 63 | 0 | 0.0 | 0.0 | 0.00 | 0.00 | 0.00 | 64 | 1017.7 |
| 20260504200904 | 63 | 0 | 0.0 | 0.0 | 0.00 | 0.00 | 0.00 | 64 | 1017.7 |
| 20260504200804 | 63 | 0 | 0.0 | 0.0 | 0.00 | 0.00 | 0.00 | 63 | 1017.7 |
| 20260504200704 | 63 | 0 | 0.0 | 0.0 | 0.00 | 0.00 | 0.00 | 63 | 1017.7 |
| 20260504200604 | 63 | 0 | 0.0 | 0.0 | 0.00 | 0.00 | 0.00 | 63 | 1017.7 |
| 20260504200504 | 63 | 0 | 0.0 | 0.0 | 0.00 | 0.00 | 0.00 | 63 | 1017.6 |
| 20260504200404 | 63 | 0 | 0.0 | 0.0 | 0.00 | 0.00 | 0.00 | 63 | 1017.6 |
| 20260504200304 | 63 | 0 | 0.0 | 0.0 | 0.00 | 0.00 | 0.00 | 62 | 1017.6 |
| 20260504200204 | 63 | 0 | 0.0 | 0.0 | 0.00 | 0.00 | 0.00 | 63 | 1017.6 |
| 20260504200103 | 63 | 0 | 0.0 | 0.0 | 0.00 | 0.00 | 0.00 | 62 | 1017.6 |
| 20260504200004 | 63 | 0 | 0.0 | 0.0 | 0.00 | 0.00 | 0.00 | 62 | 1017.6 |
| 20260504195903 | 63 | 0 | 0.0 | 0.0 | 0.00 | 0.00 | 0.00 | 62 | 1017.6 |
| 20260504195803 | 63 | 0 | 0.0 | 0.0 | 0.00 | 0.00 | 0.00 | 62 | 1017.7 |
| 20260504195703 | 64 | 0 | 0.0 | 0.0 | 0.00 | 0.00 | 0.00 | 62 | 1017.6 |
| 20260504195603 | 64 | 0 | 0.0 | 0.0 | 0.00 | 0.00 | 0.00 | 61 | 1017.6 |
| 20260504195503 | 64 | 276 | 0.0 | 1.0 | 0.00 | 0.00 | 0.00 | 61 | 1017.5 |
| 20260504195403 | 64 | 276 | 0.0 | 1.0 | 0.00 | 0.00 | 0.00 | 61 | 1017.5 |
| 20260504195304 | 64 | 276 | 0.0 | 1.0 | 0.00 | 0.00 | 0.00 | 61 | 1017.5 |
| 20260504195203 | 64 | 276 | 0.0 | 1.0 | 0.00 | 0.00 | 0.00 | 60 | 1017.5 |
| 20260504195103 | 64 | 276 | 0.0 | 1.0 | 0.00 | 0.00 | 0.00 | 60 | 1017.5 |
| 20260504195004 | 64 | 276 | 0.0 | 1.0 | 0.00 | 0.00 | 0.00 | 60 | 1017.4 |
| 20260504194903 | 64 | 276 | 0.0 | 1.0 | 0.00 | 0.00 | 0.00 | 60 | 1017.4 |
| 20260504194803 | 64 | 276 | 0.0 | 1.0 | 0.00 | 0.00 | 0.00 | 59 | 1017.5 |
| 20260504194703 | 64 | 276 | 0.0 | 1.0 | 0.00 | 0.00 | 0.00 | 59 | 1017.4 |
| 20260504194603 | 64 | 276 | 0.0 | 1.0 | 0.00 | 0.00 | 0.00 | 59 | 1017.4 |
| 20260504194503 | 64 | 0 | 0.0 | 0.0 | 0.00 | 0.00 | 0.00 | 58 | 1017.4 |
| 20260504194403 | 64 | 0 | 0.0 | 0.0 | 0.00 | 0.00 | 0.00 | 58 | 1017.4 |
| 20260504194303 | 64 | 271 | 0.0 | 3.0 | 0.00 | 0.00 | 0.00 | 58 | 1017.4 |
| 20260504194203 | 64 | 271 | 0.0 | 3.0 | 0.00 | 0.00 | 0.00 | 58 | 1017.4 |
| 20260504194103 | 64 | 272 | 0.0 | 3.0 | 0.00 | 0.00 | 0.00 | 58 | 1017.4 |
| 20260504194003 | 64 | 272 | 0.0 | 3.0 | 0.00 | 0.00 | 0.00 | 58 | 1017.5 |
| 20260504193903 | 64 | 293 | 0.0 | 3.0 | 0.00 | 0.00 | 0.00 | 57 | 1017.4 |
| 20260504193803 | 64 | 293 | 0.0 | 3.0 | 0.00 | 0.00 | 0.00 | 57 | 1017.4 |
| 20260504193703 | 64 | 293 | 0.0 | 3.0 | 0.00 | 0.00 | 0.00 | 57 | 1017.4 |
| 20260504193603 | 64 | 293 | 0.0 | 3.0 | 0.00 | 0.00 | 0.00 | 57 | 1017.4 |
| 20260504193503 | 64 | 289 | 0.0 | 3.0 | 0.00 | 0.00 | 0.00 | 56 | 1017.4 |
| 20260504193403 | 64 | 289 | 0.0 | 3.0 | 0.00 | 0.00 | 0.00 | 56 | 1017.4 |
| 20260504193303 | 64 | 309 | 0.0 | 2.0 | 0.00 | 0.00 | 0.00 | 56 | 1017.4 |
| 20260504193203 | 64 | 320 | 0.0 | 2.0 | 0.00 | 0.00 | 0.00 | 56 | 1017.4 |
| 20260504193103 | 64 | 328 | 0.0 | 2.0 | 0.00 | 0.00 | 0.00 | 56 | 1017.4 |
| 20260504193003 | 64 | 328 | 0.0 | 2.0 | 0.00 | 0.00 | 0.00 | 56 | 1017.4 |
| 20260504192903 | 64 | 312 | 0.0 | 2.0 | 0.00 | 0.00 | 0.00 | 55 | 1017.3 |
| 20260504192803 | 65 | 312 | 0.0 | 2.0 | 0.00 | 0.00 | 0.00 | 55 | 1017.3 |
| 20260504192703 | 65 | 312 | 0.0 | 2.0 | 0.00 | 0.00 | 0.00 | 55 | 1017.3 |
| 20260504192603 | 65 | 312 | 0.0 | 2.0 | 0.00 | 0.00 | 0.00 | 55 | 1017.3 |
| 20260504192503 | 65 | 329 | 0.0 | 2.0 | 0.00 | 0.00 | 0.00 | 55 | 1017.3 |
| 20260504192403 | 65 | 329 | 0.0 | 2.0 | 0.00 | 0.00 | 0.00 | 55 | 1017.3 |
| 20260504192304 | 65 | 339 | 0.0 | 2.0 | 0.00 | 0.00 | 0.00 | 55 | 1017.3 |
| 20260504192203 | 65 | 354 | 0.0 | 2.0 | 0.00 | 0.00 | 0.00 | 55 | 1017.3 |
| 20260504192103 | 65 | 356 | 0.0 | 2.0 | 0.00 | 0.00 | 0.00 | 55 | 1017.3 |
| 20260504192003 | 65 | 353 | 0.0 | 3.0 | 0.00 | 0.00 | 0.00 | 55 | 1017.3 |
| 20260504191904 | 65 | 352 | 0.0 | 3.0 | 0.00 | 0.00 | 0.00 | 54 | 1017.2 |
| 20260504191804 | 65 | 343 | 0.0 | 3.0 | 0.00 | 0.00 | 0.00 | 54 | 1017.2 |
| 20260504191704 | 65 | 339 | 0.0 | 3.0 | 0.00 | 0.00 | 0.00 | 54 | 1017.2 |
| 20260504191604 | 65 | 331 | 0.0 | 3.0 | 0.00 | 0.00 | 0.00 | 54 | 1017.2 |
| 20260504191504 | 65 | 330 | 0.0 | 3.0 | 0.00 | 0.00 | 0.00 | 54 | 1017.2 |
| 20260504191404 | 65 | 332 | 0.0 | 3.0 | 0.00 | 0.00 | 0.00 | 54 | 1017.2 |
| 20260504191304 | 65 | 323 | 0.0 | 3.0 | 0.00 | 0.00 | 0.00 | 54 | 1017.2 |
| 20260504191204 | 65 | 320 | 0.0 | 3.0 | 0.00 | 0.00 | 0.00 | 54 | 1017.2 |
| 20260504191104 | 65 | 308 | 0.0 | 3.0 | 0.00 | 0.00 | 0.00 | 54 | 1017.1 |
| 20260504191004 | 65 | 296 | 0.0 | 2.0 | 0.00 | 0.00 | 0.00 | 54 | 1017.1 |
| 20260504190904 | 65 | 304 | 0.0 | 3.0 | 0.00 | 0.00 | 0.00 | 54 | 1017.1 |
| 20260504190804 | 65 | 308 | 0.0 | 3.0 | 0.00 | 0.00 | 0.00 | 54 | 1017.1 |
| 20260504190704 | 65 | 316 | 1.0 | 4.0 | 0.00 | 0.00 | 0.00 | 54 | 1017.1 |
| 20260504190604 | 65 | 322 | 1.0 | 4.0 | 0.00 | 0.00 | 0.00 | 54 | 1017.2 |
| 20260504190504 | 65 | 318 | 1.0 | 4.0 | 0.00 | 0.00 | 0.00 | 54 | 1017.2 |
| 20260504190404 | 65 | 318 | 1.0 | 5.0 | 0.00 | 0.00 | 0.00 | 54 | 1017.1 |
| 20260504190304 | 66 | 322 | 1.0 | 5.0 | 0.00 | 0.00 | 0.00 | 54 | 1017.1 |
| 20260504190204 | 66 | 327 | 1.0 | 6.0 | 0.00 | 0.00 | 0.00 | 54 | 1017.1 |
| 20260504190104 | 66 | 327 | 1.0 | 6.0 | 0.00 | 0.00 | 0.00 | 54 | 1017.1 |
| 20260504190004 | 66 | 326 | 1.0 | 6.0 | 0.00 | 0.00 | 0.00 | 54 | 1017.1 |
| 20260504185904 | 66 | 326 | 1.0 | 6.0 | 0.00 | 0.00 | 0.00 | 55 | 1017.2 |
| 20260504185803 | 66 | 332 | 1.0 | 6.0 | 0.00 | 0.00 | 0.00 | 55 | 1017.2 |
| 20260504185704 | 66 | 333 | 1.0 | 6.0 | 0.00 | 0.00 | 0.00 | 55 | 1017.2 |
| 20260504185603 | 66 | 333 | 1.0 | 6.0 | 0.00 | 0.00 | 0.00 | 55 | 1017.1 |
| 20260504185504 | 66 | 336 | 1.0 | 6.0 | 0.00 | 0.00 | 0.00 | 55 | 1017.1 |
| 20260504185403 | 66 | 337 | 1.0 | 6.0 | 0.00 | 0.00 | 0.00 | 55 | 1017.1 |
| 20260504185304 | 66 | 337 | 1.0 | 6.0 | 0.00 | 0.00 | 0.00 | 56 | 1017.1 |
| 20260504185204 | 66 | 334 | 1.0 | 6.0 | 0.00 | 0.00 | 0.00 | 56 | 1017.1 |
| 20260504185103 | 66 | 336 | 1.0 | 6.0 | 0.00 | 0.00 | 0.00 | 56 | 1017.1 |
| 20260504185004 | 66 | 340 | 1.0 | 6.0 | 0.00 | 0.00 | 0.00 | 57 | 1017.0 |
| 20260504184903 | 66 | 338 | 1.0 | 6.0 | 0.00 | 0.00 | 0.00 | 57 | 1017.0 |
| 20260504184803 | 66 | 336 | 1.0 | 6.0 | 0.00 | 0.00 | 0.00 | 60 | 1017.1 |
| 20260504184703 | 66 | 336 | 1.0 | 6.0 | 0.00 | 0.00 | 0.00 | 61 | 1017.1 |
| 20260504184603 | 66 | 336 | 1.0 | 6.0 | 0.00 | 0.00 | 0.00 | 61 | 1017.0 |
| 20260504184503 | 66 | 336 | 1.0 | 6.0 | 0.00 | 0.00 | 0.00 | 61 | 1017.0 |
| 20260504184403 | 66 | 336 | 1.0 | 4.0 | 0.00 | 0.00 | 0.00 | 62 | 1017.0 |
| 20260504184303 | 66 | 337 | 1.0 | 4.0 | 0.00 | 0.00 | 0.00 | 62 | 1017.0 |
| 20260504184203 | 66 | 341 | 1.0 | 5.0 | 0.00 | 0.00 | 0.00 | 63 | 1017.0 |
| 20260504184103 | 66 | 339 | 1.0 | 5.0 | 0.00 | 0.00 | 0.00 | 62 | 1017.0 |
| 20260504184003 | 66 | 334 | 1.0 | 5.0 | 0.00 | 0.00 | 0.00 | 63 | 1017.0 |
| 20260504183903 | 67 | 339 | 1.0 | 5.0 | 0.00 | 0.00 | 0.00 | 63 | 1017.0 |
| 20260504183803 | 67 | 338 | 1.0 | 5.0 | 0.00 | 0.00 | 0.00 | 63 | 1017.0 |
| 20260504183703 | 67 | 336 | 1.0 | 6.0 | 0.00 | 0.00 | 0.00 | 63 | 1017.0 |
| 20260504183603 | 67 | 338 | 1.0 | 6.0 | 0.00 | 0.00 | 0.00 | 64 | 1017.0 |
| 20260504183503 | 67 | 340 | 1.0 | 6.0 | 0.00 | 0.00 | 0.00 | 63 | 1016.9 |
| 20260504183403 | 67 | 341 | 1.0 | 6.0 | 0.00 | 0.00 | 0.00 | 63 | 1016.9 |
| 20260504183303 | 67 | 338 | 1.0 | 6.0 | 0.00 | 0.00 | 0.00 | 63 | 1017.0 |
| 20260504183203 | 67 | 331 | 1.0 | 6.0 | 0.00 | 0.00 | 0.00 | 63 | 1016.9 |
| 20260504183103 | 67 | 331 | 1.0 | 6.0 | 0.00 | 0.00 | 0.00 | 63 | 1016.9 |
| 20260504183003 | 67 | 332 | 1.0 | 6.0 | 0.00 | 0.00 | 0.00 | 63 | 1016.9 |
| 20260504182903 | 67 | 335 | 1.0 | 6.0 | 0.00 | 0.00 | 0.00 | 63 | 1016.9 |
| 20260504182803 | 67 | 337 | 1.0 | 6.0 | 0.00 | 0.00 | 0.00 | 63 | 1016.9 |
| 20260504182703 | 67 | 337 | 1.0 | 6.0 | 0.00 | 0.00 | 0.00 | 63 | 1016.9 |
| 20260504182603 | 67 | 338 | 1.0 | 6.0 | 0.00 | 0.00 | 0.00 | 62 | 1016.9 |
| 20260504182503 | 68 | 337 | 1.0 | 8.0 | 0.00 | 0.00 | 0.00 | 62 | 1016.9 |
| 20260504182403 | 68 | 336 | 1.0 | 8.0 | 0.00 | 0.00 | 0.00 | 62 | 1016.9 |
| 20260504182304 | 68 | 335 | 1.0 | 8.0 | 0.00 | 0.00 | 0.00 | 62 | 1016.8 |
| 20260504182204 | 68 | 336 | 1.0 | 8.0 | 0.00 | 0.00 | 0.00 | 62 | 1016.8 |
| 20260504182104 | 68 | 336 | 1.0 | 8.0 | 0.00 | 0.00 | 0.00 | 62 | 1016.8 |
| 20260504182004 | 68 | 335 | 1.0 | 8.0 | 0.00 | 0.00 | 0.00 | 62 | 1016.8 |
| 20260504181904 | 68 | 333 | 1.0 | 8.0 | 0.00 | 0.00 | 0.00 | 62 | 1016.9 |
| 20260504181804 | 68 | 328 | 1.0 | 8.0 | 0.00 | 0.00 | 0.00 | 62 | 1016.9 |
| 20260504181704 | 68 | 326 | 1.0 | 8.0 | 0.00 | 0.00 | 0.00 | 61 | 1016.8 |
| 20260504181604 | 68 | 320 | 1.0 | 8.0 | 0.00 | 0.00 | 0.00 | 62 | 1016.8 |
| 20260504181504 | 68 | 313 | 1.0 | 5.0 | 0.00 | 0.00 | 0.00 | 62 | 1016.8 |
| 20260504181404 | 68 | 310 | 1.0 | 5.0 | 0.00 | 0.00 | 0.00 | 61 | 1016.8 |
| 20260504181304 | 68 | 319 | 1.0 | 7.0 | 0.00 | 0.00 | 0.00 | 61 | 1016.8 |
| 20260504181204 | 68 | 325 | 1.0 | 7.0 | 0.00 | 0.00 | 0.00 | 61 | 1016.8 |
| 20260504181104 | 68 | 325 | 1.0 | 7.0 | 0.00 | 0.00 | 0.00 | 61 | 1016.8 |
| 20260504181004 | 68 | 329 | 1.0 | 7.0 | 0.00 | 0.00 | 0.00 | 61 | 1016.8 |
| 20260504180904 | 68 | 332 | 1.0 | 7.0 | 0.00 | 0.00 | 0.00 | 60 | 1016.8 |
| 20260504180804 | 68 | 332 | 1.0 | 7.0 | 0.00 | 0.00 | 0.00 | 60 | 1016.8 |
| 20260504180704 | 68 | 333 | 1.0 | 7.0 | 0.00 | 0.00 | 0.00 | 60 | 1016.8 |
| 20260504180604 | 68 | 334 | 1.0 | 7.0 | 0.00 | 0.00 | 0.00 | 59 | 1016.8 |
| 20260504180504 | 68 | 337 | 1.0 | 7.0 | 0.00 | 0.00 | 0.00 | 59 | 1016.8 |
| 20260504180404 | 68 | 338 | 1.0 | 7.0 | 0.00 | 0.00 | 0.00 | 59 | 1016.8 |
| 20260504180304 | 68 | 337 | 1.0 | 6.0 | 0.00 | 0.00 | 0.00 | 59 | 1016.8 |
| 20260504180204 | 68 | 334 | 1.0 | 6.0 | 0.00 | 0.00 | 0.00 | 58 | 1016.8 |
| 20260504180103 | 68 | 335 | 1.0 | 6.0 | 0.00 | 0.00 | 0.00 | 58 | 1016.8 |
| 20260504180004 | 69 | 335 | 1.0 | 6.0 | 0.00 | 0.00 | 0.00 | 58 | 1016.8 |
| 20260504175903 | 69 | 335 | 1.0 | 6.0 | 0.00 | 0.00 | 0.00 | 57 | 1016.7 |
| 20260504175803 | 69 | 335 | 1.0 | 6.0 | 0.00 | 0.00 | 0.00 | 57 | 1016.7 |
| 20260504175703 | 69 | 335 | 1.0 | 6.0 | 0.00 | 0.00 | 0.00 | 57 | 1016.7 |
| 20260504175603 | 69 | 334 | 1.0 | 6.0 | 0.00 | 0.00 | 0.00 | 57 | 1016.8 |
| 20260504175503 | 69 | 331 | 1.0 | 5.0 | 0.00 | 0.00 | 0.00 | 56 | 1016.8 |
| 20260504175403 | 69 | 329 | 1.0 | 5.0 | 0.00 | 0.00 | 0.00 | 56 | 1016.8 |
| 20260504175304 | 69 | 331 | 1.0 | 5.0 | 0.00 | 0.00 | 0.00 | 55 | 1016.8 |
| 20260504175203 | 69 | 335 | 1.0 | 5.0 | 0.00 | 0.00 | 0.00 | 55 | 1016.7 |
| 20260504175103 | 69 | 333 | 1.0 | 5.0 | 0.00 | 0.00 | 0.00 | 55 | 1016.8 |
| 20260504175004 | 69 | 333 | 1.0 | 5.0 | 0.00 | 0.00 | 0.00 | 55 | 1016.8 |
| 20260504174903 | 69 | 334 | 1.0 | 6.0 | 0.00 | 0.00 | 0.00 | 54 | 1016.7 |
| 20260504174803 | 69 | 336 | 1.0 | 6.0 | 0.00 | 0.00 | 0.00 | 54 | 1016.8 |
| 20260504174703 | 69 | 337 | 1.0 | 6.0 | 0.00 | 0.00 | 0.00 | 54 | 1016.8 |
| 20260504174603 | 69 | 339 | 1.0 | 6.0 | 0.00 | 0.00 | 0.00 | 54 | 1016.8 |
| 20260504174503 | 69 | 338 | 1.0 | 6.0 | 0.00 | 0.00 | 0.00 | 54 | 1016.8 |
| 20260504174403 | 69 | 339 | 1.0 | 6.0 | 0.00 | 0.00 | 0.00 | 53 | 1016.8 |
| 20260504174303 | 69 | 339 | 1.0 | 6.0 | 0.00 | 0.00 | 0.00 | 53 | 1016.8 |
| 20260504174203 | 69 | 340 | 2.0 | 6.0 | 0.00 | 0.00 | 0.00 | 53 | 1016.8 |
| 20260504174103 | 69 | 340 | 2.0 | 6.0 | 0.00 | 0.00 | 0.00 | 53 | 1016.8 |
| 20260504174003 | 69 | 338 | 2.0 | 6.0 | 0.00 | 0.00 | 0.00 | 52 | 1016.8 |
| 20260504173903 | 69 | 336 | 1.0 | 6.0 | 0.00 | 0.00 | 0.00 | 52 | 1016.8 |
| 20260504173803 | 69 | 337 | 1.0 | 6.0 | 0.00 | 0.00 | 0.00 | 52 | 1016.8 |
| 20260504173703 | 69 | 338 | 1.0 | 6.0 | 0.00 | 0.00 | 0.00 | 52 | 1016.8 |
| 20260504173603 | 69 | 333 | 1.0 | 6.0 | 0.00 | 0.00 | 0.00 | 52 | 1016.8 |
| 20260504173503 | 69 | 335 | 1.0 | 6.0 | 0.00 | 0.00 | 0.00 | 52 | 1016.8 |
| 20260504173403 | 69 | 335 | 1.0 | 6.0 | 0.00 | 0.00 | 0.00 | 52 | 1016.8 |
| 20260504173303 | 69 | 334 | 1.0 | 6.0 | 0.00 | 0.00 | 0.00 | 51 | 1016.8 |
| 20260504173203 | 69 | 334 | 1.0 | 4.0 | 0.00 | 0.00 | 0.00 | 52 | 1016.8 |
| 20260504173103 | 69 | 332 | 1.0 | 4.0 | 0.00 | 0.00 | 0.00 | 52 | 1016.8 |
| 20260504173003 | 69 | 334 | 1.0 | 4.0 | 0.00 | 0.00 | 0.00 | 52 | 1016.8 |
| 20260504172903 | 70 | 330 | 1.0 | 5.0 | 0.00 | 0.00 | 0.00 | 52 | 1016.8 |
| 20260504172803 | 70 | 331 | 1.0 | 5.0 | 0.00 | 0.00 | 0.00 | 52 | 1016.7 |
| 20260504172703 | 70 | 333 | 1.0 | 5.0 | 0.00 | 0.00 | 0.00 | 52 | 1016.7 |
| 20260504172603 | 70 | 338 | 1.0 | 5.0 | 0.00 | 0.00 | 0.00 | 52 | 1016.9 |
| 20260504172503 | 70 | 335 | 1.0 | 5.0 | 0.00 | 0.00 | 0.00 | 52 | 1016.8 |
| 20260504172403 | 70 | 333 | 1.0 | 5.0 | 0.00 | 0.00 | 0.00 | 52 | 1016.8 |
| 20260504172304 | 70 | 334 | 1.0 | 5.0 | 0.00 | 0.00 | 0.00 | 52 | 1016.7 |
| 20260504172204 | 70 | 331 | 1.0 | 5.0 | 0.00 | 0.00 | 0.00 | 52 | 1016.7 |
| 20260504172104 | 70 | 331 | 1.0 | 5.0 | 0.00 | 0.00 | 0.00 | 52 | 1016.8 |
| 20260504172003 | 70 | 333 | 1.0 | 5.0 | 0.00 | 0.00 | 0.00 | 52 | 1016.8 |
| 20260504171904 | 70 | 336 | 1.0 | 4.0 | 0.00 | 0.00 | 0.00 | 52 | 1016.8 |
| 20260504171804 | 70 | 334 | 1.0 | 4.0 | 0.00 | 0.00 | 0.00 | 52 | 1016.8 |
| 20260504171704 | 70 | 331 | 1.0 | 4.0 | 0.00 | 0.00 | 0.00 | 53 | 1016.8 |
| 20260504171604 | 70 | 326 | 1.0 | 4.0 | 0.00 | 0.00 | 0.00 | 54 | 1016.8 |
| 20260504171504 | 70 | 330 | 0.0 | 4.0 | 0.00 | 0.00 | 0.00 | 54 | 1016.8 |
| 20260504171404 | 70 | 330 | 0.0 | 4.0 | 0.00 | 0.00 | 0.00 | 53 | 1016.8 |
| 20260504171304 | 70 | 331 | 0.0 | 4.0 | 0.00 | 0.00 | 0.00 | 53 | 1016.7 |
| 20260504171204 | 70 | 333 | 0.0 | 4.0 | 0.00 | 0.00 | 0.00 | 53 | 1016.7 |
| 20260504171104 | 70 | 331 | 0.0 | 4.0 | 0.00 | 0.00 | 0.00 | 53 | 1016.7 |
| 20260504171003 | 70 | 330 | 0.0 | 3.0 | 0.00 | 0.00 | 0.00 | 53 | 1016.8 |
| 20260504170904 | 71 | 337 | 0.0 | 3.0 | 0.00 | 0.00 | 0.00 | 52 | 1016.8 |
| 20260504170804 | 71 | 280 | 0.0 | 1.0 | 0.00 | 0.00 | 0.00 | 53 | 1016.7 |
| 20260504170704 | 71 | 0 | 0.0 | 0.0 | 0.00 | 0.00 | 0.00 | 52 | 1016.8 |
| 20260504170604 | 71 | 0 | 0.0 | 0.0 | 0.00 | 0.00 | 0.00 | 53 | 1016.8 |
| 20260504170504 | 71 | 0 | 0.0 | 0.0 | 0.00 | 0.00 | 0.00 | 53 | 1016.7 |
| 20260504170404 | 71 | 0 | 0.0 | 0.0 | 0.00 | 0.00 | 0.00 | 53 | 1016.7 |
| 20260504170303 | 71 | 0 | 0.0 | 0.0 | 0.00 | 0.00 | 0.00 | 52 | 1016.8 |
| 20260504170204 | 71 | 0 | 0.0 | 0.0 | 0.00 | 0.00 | 0.00 | 51 | 1016.7 |
| 20260504170104 | 71 | 0 | 0.0 | 0.0 | 0.00 | 0.00 | 0.00 | 51 | 1016.7 |